Wetterdaten: Sonntag, 29.10.2023
Datum Zeit Temp. Aussen Temp. o. S. Temp +5cm Feuchte Auss Luftdruck Regen Sonnenschein Regendauer Solar Windben Empfang
29.10.2023 00:00 11,5 C 10,6 C 7,8 C 98 % 995,4 hPa 0,0 l/m 0 min 0 min 0 W/m 9,7 km/h (2 Bft) 100,00 %
29.10.2023 00:02 11,5 C 10,6 C 7,8 C 98 % 995,3 hPa 0,0 l/m 0 min 0 min 0 W/m 12,9 km/h (3 Bft) 97,56 %
29.10.2023 00:04 11,5 C 10,6 C 7,8 C 98 % 995,2 hPa 0,0 l/m 0 min 0 min 0 W/m 16,1 km/h (3 Bft) 100,00 %
29.10.2023 00:08 11,5 C 10,6 C 7,8 C 98 % 995,2 hPa 0,0 l/m 0 min 0 min 0 W/m 9,7 km/h (2 Bft) 100,00 %
29.10.2023 00:09 11,5 C 10,6 C 7,8 C 98 % 995,2 hPa 0,0 l/m 0 min 0 min 0 W/m 16,1 km/h (3 Bft) 100,00 %
29.10.2023 00:10 11,5 C 10,6 C 7,8 C 98 % 995,2 hPa 0,0 l/m 0 min 0 min 0 W/m 16,1 km/h (3 Bft) 100,00 %
29.10.2023 00:14 11,5 C 11,1 C 7,8 C 98 % 995,3 hPa 0,0 l/m 0 min 0 min 0 W/m 12,9 km/h (3 Bft) 94,87 %
29.10.2023 00:16 11,5 C 11,1 C 7,8 C 98 % 995,2 hPa 0,0 l/m 0 min 0 min 0 W/m 12,9 km/h (3 Bft) 97,87 %
29.10.2023 00:18 11,5 C 11,1 C 7,8 C 98 % 995,1 hPa 0,0 l/m 0 min 0 min 0 W/m 12,9 km/h (3 Bft) 100,00 %
29.10.2023 00:20 11,5 C 11,1 C 7,8 C 98 % 995,1 hPa 0,0 l/m 0 min 0 min 0 W/m 16,1 km/h (3 Bft) 97,87 %
29.10.2023 00:22 11,5 C 11,1 C 7,8 C 98 % 995,1 hPa 0,0 l/m 0 min 0 min 0 W/m 16,1 km/h (3 Bft) 100,00 %
29.10.2023 00:24 11,6 C 11,1 C 7,8 C 98 % 995,1 hPa 0,0 l/m 0 min 0 min 0 W/m 12,9 km/h (3 Bft) 100,00 %
29.10.2023 00:26 11,6 C 11,1 C 7,8 C 98 % 995,0 hPa 0,0 l/m 0 min 0 min 0 W/m 12,9 km/h (3 Bft) 100,00 %
29.10.2023 00:28 11,6 C 11,1 C 7,8 C 98 % 995,0 hPa 0,0 l/m 0 min 0 min 0 W/m 12,9 km/h (3 Bft) 100,00 %
29.10.2023 00:30 11,6 C 11,1 C 7,8 C 98 % 994,9 hPa 0,0 l/m 0 min 0 min 0 W/m 22,5 km/h (4 Bft) 97,87 %
29.10.2023 00:32 11,6 C 11,1 C 7,8 C 98 % 994,9 hPa 0,0 l/m 0 min 0 min 0 W/m 9,7 km/h (2 Bft) 100,00 %
29.10.2023 00:34 11,6 C 11,1 C 7,8 C 98 % 994,9 hPa 0,0 l/m 0 min 0 min 0 W/m 12,9 km/h (3 Bft) 100,00 %
29.10.2023 00:36 11,6 C 11,1 C 7,8 C 98 % 994,9 hPa 0,0 l/m 0 min 0 min 0 W/m 16,1 km/h (3 Bft) 100,00 %
29.10.2023 00:38 11,6 C 11,1 C 7,8 C 98 % 994,8 hPa 0,0 l/m 0 min 0 min 0 W/m 16,1 km/h (3 Bft) 100,00 %
29.10.2023 00:40 11,6 C 11,1 C 7,8 C 98 % 994,9 hPa 0,0 l/m 0 min 0 min 0 W/m 16,1 km/h (3 Bft) 100,00 %
29.10.2023 00:42 11,6 C 11,1 C 7,8 C 98 % 995,1 hPa 0,0 l/m 0 min 2 min 0 W/m 16,1 km/h (3 Bft) 97,87 %
29.10.2023 00:44 11,6 C 11,1 C 7,8 C 98 % 995,1 hPa 0,0 l/m 0 min 0 min 0 W/m 16,1 km/h (3 Bft) 100,00 %
29.10.2023 00:46 11,6 C 11,1 C 7,8 C 98 % 995,0 hPa 0,0 l/m 0 min 2 min 0 W/m 12,9 km/h (3 Bft) 97,87 %
29.10.2023 00:48 11,6 C 11,1 C 7,8 C 98 % 994,9 hPa 0,0 l/m 0 min 2 min 0 W/m 22,5 km/h (4 Bft) 100,00 %
29.10.2023 00:50 11,6 C 11,1 C 7,8 C 98 % 994,9 hPa 0,0 l/m 0 min 0 min 0 W/m 19,3 km/h (3 Bft) 97,87 %
29.10.2023 00:52 11,6 C 11,1 C 7,8 C 98 % 994,8 hPa 0,0 l/m 0 min 2 min 0 W/m 22,5 km/h (4 Bft) 97,87 %
29.10.2023 00:54 11,6 C 11,1 C 7,8 C 98 % 994,9 hPa 0,0 l/m 0 min 0 min 0 W/m 12,9 km/h (3 Bft) 95,74 %
29.10.2023 00:56 11,6 C 11,1 C 7,8 C 98 % 994,9 hPa 0,0 l/m 0 min 0 min 0 W/m 16,1 km/h (3 Bft) 97,87 %
29.10.2023 00:58 11,6 C 11,1 C 7,8 C 98 % 994,9 hPa 0,0 l/m 0 min 0 min 0 W/m 16,1 km/h (3 Bft) 97,83 %
29.10.2023 01:00 11,6 C 11,1 C 7,8 C 98 % 994,9 hPa 0,0 l/m 0 min 0 min 0 W/m 16,1 km/h (3 Bft) 96,43 %
29.10.2023 01:02 11,7 C 11,1 C 7,8 C 98 % 994,8 hPa 0,0 l/m 0 min 0 min 0 W/m 16,1 km/h (3 Bft) 95,74 %
29.10.2023 01:04 11,6 C 11,1 C 7,8 C 98 % 994,9 hPa 0,0 l/m 0 min 0 min 0 W/m 12,9 km/h (3 Bft) 97,87 %
29.10.2023 01:10 11,7 C 11,1 C 7,8 C 98 % 994,6 hPa 0,0 l/m 0 min 0 min 0 W/m 16,1 km/h (3 Bft) 97,16 %
29.10.2023 01:12 11,7 C 11,1 C 7,8 C 98 % 994,6 hPa 0,0 l/m 0 min 0 min 0 W/m 19,3 km/h (3 Bft) 95,65 %
29.10.2023 01:14 11,7 C 11,1 C 7,8 C 98 % 994,5 hPa 0,0 l/m 0 min 0 min 0 W/m 9,7 km/h (2 Bft) 97,87 %
29.10.2023 01:16 11,7 C 11,1 C 7,8 C 98 % 994,5 hPa 0,0 l/m 0 min 0 min 0 W/m 16,1 km/h (3 Bft) 97,87 %
29.10.2023 01:18 11,7 C 11,1 C 7,8 C 98 % 994,4 hPa 0,0 l/m 0 min 0 min 0 W/m 19,3 km/h (3 Bft) 97,87 %
29.10.2023 01:20 11,7 C 11,1 C 7,8 C 98 % 994,3 hPa 0,0 l/m 0 min 0 min 0 W/m 9,7 km/h (2 Bft) 95,74 %
29.10.2023 01:22 11,7 C 11,1 C 7,8 C 98 % 994,5 hPa 0,0 l/m 0 min 0 min 0 W/m 16,1 km/h (3 Bft) 100,00 %
29.10.2023 01:24 11,7 C 11,1 C 7,8 C 98 % 994,6 hPa 0,0 l/m 0 min 0 min 0 W/m 12,9 km/h (3 Bft) 97,87 %
29.10.2023 01:26 11,7 C 11,1 C 7,8 C 98 % 994,5 hPa 0,0 l/m 0 min 0 min 0 W/m 22,5 km/h (4 Bft) 95,74 %
29.10.2023 01:28 11,7 C 11,1 C 7,8 C 98 % 994,4 hPa 0,0 l/m 0 min 0 min 0 W/m 9,7 km/h (2 Bft) 95,65 %
29.10.2023 01:30 11,7 C 11,1 C 7,8 C 98 % 994,2 hPa 0,0 l/m 0 min 0 min 0 W/m 16,1 km/h (3 Bft) 97,87 %
29.10.2023 01:32 11,8 C 11,1 C 7,8 C 98 % 994,3 hPa 0,0 l/m 0 min 0 min 0 W/m 16,1 km/h (3 Bft) 97,87 %
29.10.2023 01:34 11,8 C 11,7 C 7,8 C 98 % 994,2 hPa 0,0 l/m 0 min 0 min 0 W/m 22,5 km/h (4 Bft) 97,87 %
29.10.2023 01:36 11,8 C 11,7 C 7,8 C 98 % 994,2 hPa 0,0 l/m 0 min 0 min 0 W/m 16,1 km/h (3 Bft) 95,74 %
29.10.2023 01:38 11,8 C 11,7 C 7,8 C 98 % 994,2 hPa 0,0 l/m 0 min 0 min 0 W/m 12,9 km/h (3 Bft) 95,74 %
29.10.2023 01:40 11,8 C 11,7 C 7,8 C 98 % 994,1 hPa 0,0 l/m 0 min 0 min 0 W/m 6,4 km/h (2 Bft) 97,87 %
29.10.2023 01:42 11,8 C 11,7 C 7,8 C 98 % 994,2 hPa 0,0 l/m 0 min 0 min 0 W/m 16,1 km/h (3 Bft) 95,74 %
29.10.2023 01:44 11,8 C 11,7 C 7,8 C 98 % 994,1 hPa 0,0 l/m 0 min 0 min 0 W/m 29,0 km/h (5 Bft) 95,74 %
29.10.2023 01:46 11,8 C 11,7 C 8,3 C 98 % 994,1 hPa 0,0 l/m 0 min 0 min 0 W/m 22,5 km/h (4 Bft) 91,43 %
29.10.2023 01:48 11,8 C 11,7 C 8,3 C 98 % 994,1 hPa 0,0 l/m 0 min 0 min 0 W/m 19,3 km/h (3 Bft) 95,74 %
29.10.2023 01:50 11,9 C 11,7 C 8,3 C 98 % 994,1 hPa 0,0 l/m 0 min 0 min 0 W/m 19,3 km/h (3 Bft) 91,49 %
29.10.2023 01:52 11,9 C 11,7 C 8,3 C 98 % 994,0 hPa 0,0 l/m 0 min 0 min 0 W/m 16,1 km/h (3 Bft) 95,65 %
29.10.2023 01:54 11,9 C 11,7 C 8,3 C 98 % 994,0 hPa 0,0 l/m 0 min 0 min 0 W/m 19,3 km/h (3 Bft) 96,30 %
29.10.2023 01:56 11,9 C 11,7 C 8,3 C 98 % 993,9 hPa 0,0 l/m 0 min 0 min 0 W/m 38,6 km/h (5 Bft) 95,74 %
29.10.2023 01:58 11,9 C 11,7 C 8,3 C 98 % 994,1 hPa 0,0 l/m 0 min 0 min 0 W/m 6,4 km/h (2 Bft) 93,33 %
29.10.2023 02:00 11,9 C 11,7 C 8,3 C 98 % 994,2 hPa 0,0 l/m 0 min 0 min 0 W/m 19,3 km/h (3 Bft) 95,74 %
29.10.2023 02:02 11,9 C 11,7 C 8,3 C 98 % 994,1 hPa 0,0 l/m 0 min 0 min 0 W/m 12,9 km/h (3 Bft) 93,62 %
29.10.2023 02:04 11,9 C 11,7 C 8,3 C 98 % 994,1 hPa 0,0 l/m 0 min 0 min 0 W/m 16,1 km/h (3 Bft) 95,83 %
29.10.2023 02:06 12,0 C 11,7 C 8,3 C 98 % 994,1 hPa 0,0 l/m 0 min 0 min 0 W/m 12,9 km/h (3 Bft) 93,33 %
29.10.2023 02:08 12,0 C 11,7 C 8,3 C 98 % 994,0 hPa 0,0 l/m 0 min 0 min 0 W/m 16,1 km/h (3 Bft) 97,14 %
29.10.2023 02:10 12,0 C 11,7 C 8,3 C 98 % 993,9 hPa 0,0 l/m 0 min 0 min 0 W/m 16,1 km/h (3 Bft) 95,74 %
29.10.2023 02:12 12,0 C 11,7 C 8,3 C 98 % 994,0 hPa 0,0 l/m 0 min 0 min 0 W/m 16,1 km/h (3 Bft) 91,49 %
29.10.2023 02:14 12,1 C 11,7 C 8,3 C 98 % 993,9 hPa 0,0 l/m 0 min 0 min 0 W/m 16,1 km/h (3 Bft) 95,65 %
29.10.2023 02:16 12,1 C 11,7 C 8,3 C 98 % 994,0 hPa 0,0 l/m 0 min 0 min 0 W/m 12,9 km/h (3 Bft) 97,87 %
29.10.2023 02:18 12,1 C 11,7 C 8,3 C 98 % 994,0 hPa 0,0 l/m 0 min 0 min 0 W/m 12,9 km/h (3 Bft) 95,74 %
29.10.2023 02:20 12,1 C 11,7 C 8,3 C 98 % 994,0 hPa 0,0 l/m 0 min 0 min 0 W/m 12,9 km/h (3 Bft) 97,87 %
29.10.2023 02:22 12,1 C 11,7 C 8,3 C 98 % 994,0 hPa 0,0 l/m 0 min 0 min 0 W/m 12,9 km/h (3 Bft) 95,74 %
29.10.2023 02:24 12,1 C 11,7 C 8,3 C 98 % 994,0 hPa 0,0 l/m 0 min 0 min 0 W/m 6,4 km/h (2 Bft) 91,49 %
29.10.2023 02:26 12,1 C 11,7 C 8,3 C 98 % 994,0 hPa 0,0 l/m 0 min 0 min 0 W/m 12,9 km/h (3 Bft) 97,83 %
29.10.2023 02:28 12,1 C 11,7 C 8,3 C 98 % 994,0 hPa 0,0 l/m 0 min 0 min 0 W/m 6,4 km/h (2 Bft) 100,00 %
29.10.2023 02:30 12,1 C 11,7 C 8,3 C 98 % 994,1 hPa 0,0 l/m 0 min 0 min 0 W/m 19,3 km/h (3 Bft) 97,87 %
29.10.2023 02:32 12,2 C 11,7 C 8,3 C 98 % 994,0 hPa 0,0 l/m 0 min 0 min 0 W/m 19,3 km/h (3 Bft) 98,08 %
29.10.2023 02:34 12,2 C 11,7 C 8,3 C 98 % 993,9 hPa 0,0 l/m 0 min 0 min 0 W/m 12,9 km/h (3 Bft) 97,87 %
29.10.2023 02:36 12,2 C 12,2 C 8,3 C 98 % 994,0 hPa 0,0 l/m 0 min 0 min 0 W/m 12,9 km/h (3 Bft) 95,65 %
29.10.2023 02:38 12,2 C 12,2 C 8,3 C 97 % 994,0 hPa 0,0 l/m 0 min 0 min 0 W/m 16,1 km/h (3 Bft) 100,00 %
29.10.2023 02:40 12,3 C 12,2 C 8,3 C 97 % 993,9 hPa 0,0 l/m 0 min 0 min 0 W/m 12,9 km/h (3 Bft) 97,87 %
29.10.2023 02:42 12,3 C 12,2 C 8,3 C 97 % 994,0 hPa 0,0 l/m 0 min 0 min 0 W/m 12,9 km/h (3 Bft) 95,74 %
29.10.2023 02:44 12,3 C 12,2 C 8,3 C 97 % 994,0 hPa 0,0 l/m 0 min 2 min 0 W/m 6,4 km/h (2 Bft) 97,87 %
29.10.2023 02:46 12,3 C 12,2 C 8,3 C 97 % 994,0 hPa 0,0 l/m 0 min 0 min 0 W/m 16,1 km/h (3 Bft) 97,87 %
29.10.2023 02:48 12,4 C 12,2 C 8,3 C 97 % 994,0 hPa 0,0 l/m 0 min 2 min 0 W/m 22,5 km/h (4 Bft) 63,04 %
29.10.2023 02:50 12,4 C 12,2 C 8,3 C 97 % 993,9 hPa 0,0 l/m 0 min 2 min 0 W/m 12,9 km/h (3 Bft) 24,24 %
29.10.2023 02:52 12,5 C 12,2 C 8,3 C 97 % 993,9 hPa 0,0 l/m 0 min 0 min 0 W/m 19,3 km/h (3 Bft) 97,87 %
29.10.2023 02:54 12,6 C 12,2 C 8,3 C 97 % 993,9 hPa 0,0 l/m 0 min 0 min 0 W/m 12,9 km/h (3 Bft) 95,74 %
29.10.2023 02:56 12,6 C 12,2 C 8,3 C 97 % 993,9 hPa 0,0 l/m 0 min 0 min 0 W/m 12,9 km/h (3 Bft) 97,87 %
29.10.2023 02:58 12,6 C 12,2 C 8,3 C 97 % 993,8 hPa 0,0 l/m 0 min 0 min 0 W/m 6,4 km/h (2 Bft) 95,74 %
29.10.2023 02:00 12,7 C 12,2 C 8,9 C 97 % 993,8 hPa 0,0 l/m 0 min 0 min 0 W/m 19,3 km/h (3 Bft) 95,65 %
29.10.2023 02:03 12,7 C 12,8 C 8,9 C 97 % 993,8 hPa 0,0 l/m 0 min 0 min 0 W/m 12,9 km/h (3 Bft) 96,05 %
29.10.2023 02:04 12,7 C 12,8 C 8,9 C 97 % 993,8 hPa 0,0 l/m 0 min 0 min 0 W/m 12,9 km/h (3 Bft) 100,00 %
29.10.2023 02:08 12,8 C 12,8 C 8,9 C 96 % 993,8 hPa 0,0 l/m 0 min 0 min 0 W/m 6,4 km/h (2 Bft) 98,31 %
29.10.2023 02:10 12,8 C 12,8 C 8,9 C 96 % 993,8 hPa 0,0 l/m 0 min 0 min 0 W/m 3,2 km/h (1 Bft) 97,83 %
29.10.2023 02:12 12,8 C 12,2 C 8,9 C 96 % 993,7 hPa 0,0 l/m 0 min 0 min 0 W/m 16,1 km/h (3 Bft) 95,74 %
29.10.2023 02:14 12,8 C 12,8 C 8,9 C 96 % 993,7 hPa 0,0 l/m 0 min 0 min 0 W/m 19,3 km/h (3 Bft) 100,00 %
29.10.2023 02:16 12,8 C 12,8 C 8,9 C 96 % 993,7 hPa 0,0 l/m 0 min 0 min 0 W/m 16,1 km/h (3 Bft) 100,00 %
29.10.2023 02:18 12,9 C 12,8 C 8,9 C 96 % 993,7 hPa 0,0 l/m 0 min 0 min 0 W/m 16,1 km/h (3 Bft) 100,00 %
29.10.2023 02:20 12,9 C 12,8 C 8,9 C 96 % 993,8 hPa 0,0 l/m 0 min 0 min 0 W/m 12,9 km/h (3 Bft) 100,00 %
29.10.2023 02:22 12,9 C 12,8 C 8,9 C 96 % 993,8 hPa 0,0 l/m 0 min 0 min 0 W/m 12,9 km/h (3 Bft) 100,00 %
29.10.2023 02:24 12,9 C 12,8 C 8,9 C 95 % 993,8 hPa 0,0 l/m 0 min 0 min 0 W/m 3,2 km/h (1 Bft) 100,00 %
29.10.2023 02:26 12,9 C 12,8 C 8,9 C 95 % 993,7 hPa 0,0 l/m 0 min 0 min 0 W/m 9,7 km/h (2 Bft) 100,00 %
29.10.2023 02:28 12,9 C 12,8 C 8,9 C 95 % 993,7 hPa 0,0 l/m 0 min 0 min 0 W/m 12,9 km/h (3 Bft) 97,87 %
29.10.2023 02:30 13,0 C 12,8 C 8,9 C 95 % 993,8 hPa 0,0 l/m 0 min 0 min 0 W/m 9,7 km/h (2 Bft) 100,00 %
29.10.2023 02:32 13,0 C 12,8 C 8,9 C 95 % 993,7 hPa 0,0 l/m 0 min 2 min 0 W/m 6,4 km/h (2 Bft) 97,87 %
29.10.2023 02:34 13,0 C 12,8 C 8,9 C 95 % 993,7 hPa 0,0 l/m 0 min 2 min 0 W/m 25,7 km/h (4 Bft) 100,00 %
29.10.2023 02:36 13,0 C 12,8 C 8,9 C 95 % 993,8 hPa 0,0 l/m 0 min 2 min 0 W/m 25,7 km/h (4 Bft) 100,00 %
29.10.2023 02:38 13,0 C 12,8 C 8,9 C 95 % 993,8 hPa 0,0 l/m 0 min 2 min 0 W/m 12,9 km/h (3 Bft) 97,87 %
29.10.2023 02:40 13,1 C 12,8 C 8,9 C 95 % 993,8 hPa 0,0 l/m 0 min 2 min 0 W/m 12,9 km/h (3 Bft) 100,00 %
29.10.2023 02:42 13,1 C 12,2 C 8,9 C 94 % 993,7 hPa 0,2 l/m 0 min 2 min 0 W/m 6,4 km/h (2 Bft) 100,00 %
29.10.2023 02:44 13,1 C 12,2 C 8,9 C 94 % 993,7 hPa 0,0 l/m 0 min 2 min 0 W/m 25,7 km/h (4 Bft) 97,87 %
29.10.2023 02:46 13,1 C 12,2 C 8,9 C 94 % 993,6 hPa 0,0 l/m 0 min 2 min 0 W/m 6,4 km/h (2 Bft) 100,00 %
29.10.2023 02:48 13,1 C 12,2 C 8,9 C 94 % 993,5 hPa 0,0 l/m 0 min 2 min 0 W/m 12,9 km/h (3 Bft) 100,00 %
29.10.2023 02:50 13,1 C 12,2 C 8,9 C 94 % 993,3 hPa 0,2 l/m 0 min 2 min 0 W/m 9,7 km/h (2 Bft) 100,00 %
29.10.2023 02:52 13,1 C 12,2 C 8,9 C 94 % 993,2 hPa 0,0 l/m 0 min 0 min 0 W/m 12,9 km/h (3 Bft) 100,00 %
29.10.2023 02:54 13,1 C 12,2 C 8,9 C 94 % 993,2 hPa 0,0 l/m 0 min 0 min 0 W/m 6,4 km/h (2 Bft) 100,00 %
29.10.2023 02:56 13,1 C 12,2 C 8,9 C 94 % 993,1 hPa 0,0 l/m 0 min 0 min 0 W/m 6,4 km/h (2 Bft) 97,87 %
29.10.2023 02:58 13,1 C 12,2 C 8,9 C 94 % 993,1 hPa 0,0 l/m 0 min 2 min 0 W/m 12,9 km/h (3 Bft) 95,65 %
29.10.2023 03:00 13,1 C 12,2 C 8,9 C 94 % 993,1 hPa 0,0 l/m 0 min 2 min 0 W/m 12,9 km/h (3 Bft) 100,00 %
29.10.2023 03:02 13,1 C 12,2 C 8,9 C 94 % 993,0 hPa 0,0 l/m 0 min 2 min 0 W/m 6,4 km/h (2 Bft) 95,92 %
29.10.2023 03:04 13,1 C 12,2 C 8,9 C 94 % 993,0 hPa 0,0 l/m 0 min 2 min 0 W/m 6,4 km/h (2 Bft) 100,00 %
29.10.2023 03:06 13,1 C 12,2 C 8,9 C 94 % 992,9 hPa 0,0 l/m 0 min 0 min 0 W/m 6,4 km/h (2 Bft) 100,00 %
29.10.2023 03:08 13,0 C 12,2 C 8,9 C 94 % 992,9 hPa 0,0 l/m 0 min 0 min 0 W/m 6,4 km/h (2 Bft) 100,00 %
29.10.2023 03:10 13,0 C 12,2 C 8,9 C 94 % 992,9 hPa 0,0 l/m 0 min 2 min 0 W/m 12,9 km/h (3 Bft) 100,00 %
29.10.2023 03:12 13,0 C 12,2 C 8,9 C 94 % 992,9 hPa 0,0 l/m 0 min 2 min 0 W/m 12,9 km/h (3 Bft) 97,87 %
29.10.2023 03:14 13,0 C 12,2 C 8,9 C 94 % 992,9 hPa 0,0 l/m 0 min 2 min 0 W/m 16,1 km/h (3 Bft) 97,87 %
29.10.2023 03:16 13,0 C 12,2 C 8,9 C 94 % 992,8 hPa 0,0 l/m 0 min 2 min 0 W/m 9,7 km/h (2 Bft) 97,87 %
29.10.2023 03:18 12,9 C 12,2 C 8,9 C 94 % 992,9 hPa 0,0 l/m 0 min 2 min 0 W/m 12,9 km/h (3 Bft) 97,87 %
29.10.2023 03:20 12,9 C 12,2 C 8,9 C 94 % 992,9 hPa 0,0 l/m 0 min 0 min 0 W/m 16,1 km/h (3 Bft) 97,87 %
29.10.2023 03:22 12,9 C 12,2 C 8,9 C 94 % 992,9 hPa 0,0 l/m 0 min 0 min 0 W/m 12,9 km/h (3 Bft) 97,87 %
29.10.2023 03:24 12,9 C 12,2 C 8,9 C 94 % 992,9 hPa 0,0 l/m 0 min 0 min 0 W/m 6,4 km/h (2 Bft) 97,83 %
29.10.2023 03:26 12,9 C 12,2 C 8,9 C 94 % 992,8 hPa 0,0 l/m 0 min 0 min 0 W/m 6,4 km/h (2 Bft) 95,74 %
29.10.2023 03:28 12,9 C 12,2 C 8,9 C 94 % 992,8 hPa 0,0 l/m 0 min 0 min 0 W/m 12,9 km/h (3 Bft) 97,87 %
29.10.2023 03:30 12,9 C 12,2 C 8,9 C 94 % 992,9 hPa 0,0 l/m 0 min 0 min 0 W/m 16,1 km/h (3 Bft) 95,74 %
29.10.2023 03:32 12,9 C 12,2 C 8,9 C 94 % 992,8 hPa 0,0 l/m 0 min 0 min 0 W/m 12,9 km/h (3 Bft) 95,74 %
29.10.2023 03:34 12,9 C 12,2 C 8,9 C 94 % 992,8 hPa 0,0 l/m 0 min 0 min 0 W/m 6,4 km/h (2 Bft) 91,49 %
29.10.2023 03:36 12,9 C 12,2 C 8,9 C 94 % 992,8 hPa 0,0 l/m 0 min 0 min 0 W/m 19,3 km/h (3 Bft) 93,62 %
29.10.2023 03:38 12,9 C 12,2 C 8,9 C 94 % 992,8 hPa 0,0 l/m 0 min 0 min 0 W/m 12,9 km/h (3 Bft) 91,49 %
29.10.2023 03:40 12,9 C 12,2 C 8,9 C 94 % 992,8 hPa 0,0 l/m 0 min 0 min 0 W/m 6,4 km/h (2 Bft) 95,74 %
29.10.2023 03:42 12,9 C 12,2 C 8,9 C 94 % 992,8 hPa 0,0 l/m 0 min 0 min 0 W/m 16,1 km/h (3 Bft) 93,48 %
29.10.2023 03:44 12,9 C 12,2 C 8,9 C 94 % 992,7 hPa 0,0 l/m 0 min 0 min 0 W/m 22,5 km/h (4 Bft) 93,62 %
29.10.2023 03:46 12,9 C 12,2 C 8,9 C 94 % 992,7 hPa 0,0 l/m 0 min 0 min 0 W/m 6,4 km/h (2 Bft) 93,62 %
29.10.2023 03:48 12,9 C 12,2 C 8,9 C 94 % 992,8 hPa 0,0 l/m 0 min 0 min 0 W/m 6,4 km/h (2 Bft) 90,91 %
29.10.2023 03:50 12,9 C 12,2 C 8,9 C 94 % 992,9 hPa 0,0 l/m 0 min 0 min 0 W/m 16,1 km/h (3 Bft) 93,88 %
29.10.2023 03:52 12,9 C 12,2 C 8,9 C 94 % 992,7 hPa 0,0 l/m 0 min 0 min 0 W/m 6,4 km/h (2 Bft) 93,62 %
29.10.2023 03:54 12,9 C 12,2 C 8,9 C 94 % 992,7 hPa 0,0 l/m 0 min 0 min 0 W/m 12,9 km/h (3 Bft) 93,62 %
29.10.2023 03:56 12,9 C 12,2 C 8,9 C 94 % 992,7 hPa 0,0 l/m 0 min 0 min 0 W/m 16,1 km/h (3 Bft) 95,74 %
29.10.2023 03:58 12,9 C 12,8 C 8,9 C 94 % 992,7 hPa 0,0 l/m 0 min 0 min 0 W/m 19,3 km/h (3 Bft) 91,49 %
29.10.2023 04:00 13,0 C 12,8 C 8,9 C 94 % 992,6 hPa 0,0 l/m 0 min 0 min 0 W/m 12,9 km/h (3 Bft) 95,74 %
29.10.2023 04:02 13,0 C 12,8 C 8,9 C 94 % 992,5 hPa 0,0 l/m 0 min 0 min 0 W/m 16,1 km/h (3 Bft) 95,74 %
29.10.2023 04:04 13,1 C 12,8 C 8,9 C 94 % 992,5 hPa 0,0 l/m 0 min 0 min 0 W/m 19,3 km/h (3 Bft) 95,24 %
29.10.2023 04:06 13,1 C 12,8 C 8,9 C 94 % 992,5 hPa 0,0 l/m 0 min 0 min 0 W/m 12,9 km/h (3 Bft) 95,74 %
29.10.2023 04:08 13,1 C 12,8 C 8,9 C 93 % 992,5 hPa 0,0 l/m 0 min 0 min 0 W/m 12,9 km/h (3 Bft) 97,87 %
29.10.2023 04:10 13,1 C 12,8 C 8,3 C 93 % 992,5 hPa 0,0 l/m 0 min 0 min 0 W/m 6,4 km/h (2 Bft) 53,49 %
29.10.2023 04:12 13,1 C 12,8 C 8,3 C 93 % 992,5 hPa 0,0 l/m 0 min 0 min 0 W/m 9,7 km/h (2 Bft) 97,87 %
29.10.2023 04:14 13,1 C 12,8 C 8,3 C 93 % 992,4 hPa 0,0 l/m 0 min 0 min 0 W/m 12,9 km/h (3 Bft) 97,87 %
29.10.2023 04:16 13,1 C 12,2 C 8,3 C 93 % 992,5 hPa 0,0 l/m 0 min 0 min 0 W/m 19,3 km/h (3 Bft) 95,74 %
29.10.2023 04:18 13,1 C 12,2 C 8,3 C 93 % 992,5 hPa 0,0 l/m 0 min 0 min 0 W/m 16,1 km/h (3 Bft) 97,14 %
29.10.2023 04:20 13,1 C 12,2 C 8,3 C 93 % 992,3 hPa 0,0 l/m 0 min 0 min 0 W/m 12,9 km/h (3 Bft) 98,28 %
29.10.2023 04:22 13,1 C 12,2 C 8,3 C 93 % 992,4 hPa 0,0 l/m 0 min 0 min 0 W/m 12,9 km/h (3 Bft) 97,14 %
29.10.2023 04:24 13,1 C 12,2 C 8,3 C 93 % 992,4 hPa 0,0 l/m 0 min 0 min 0 W/m 12,9 km/h (3 Bft) 95,74 %
29.10.2023 04:26 13,1 C 12,2 C 8,3 C 93 % 992,5 hPa 0,0 l/m 0 min 0 min 0 W/m 12,9 km/h (3 Bft) 97,87 %
29.10.2023 04:28 13,1 C 12,8 C 8,3 C 93 % 992,4 hPa 0,0 l/m 0 min 0 min 0 W/m 12,9 km/h (3 Bft) 100,00 %
29.10.2023 04:30 13,1 C 12,8 C 8,3 C 93 % 992,4 hPa 0,0 l/m 0 min 0 min 0 W/m 16,1 km/h (3 Bft) 95,74 %
29.10.2023 04:32 13,1 C 12,8 C 8,3 C 93 % 992,3 hPa 0,0 l/m 0 min 0 min 0 W/m 12,9 km/h (3 Bft) 100,00 %
29.10.2023 04:34 13,1 C 12,8 C 8,3 C 93 % 992,3 hPa 0,0 l/m 0 min 0 min 0 W/m 6,4 km/h (2 Bft) 100,00 %
29.10.2023 04:36 13,1 C 12,8 C 8,9 C 93 % 992,3 hPa 0,0 l/m 0 min 0 min 0 W/m 16,1 km/h (3 Bft) 100,00 %
29.10.2023 04:38 13,1 C 12,8 C 8,3 C 93 % 992,3 hPa 0,0 l/m 0 min 0 min 0 W/m 6,4 km/h (2 Bft) 100,00 %
29.10.2023 04:40 13,1 C 12,8 C 8,9 C 93 % 992,3 hPa 0,0 l/m 0 min 0 min 0 W/m 6,4 km/h (2 Bft) 97,87 %
29.10.2023 04:42 13,1 C 12,2 C 8,9 C 93 % 992,4 hPa 0,0 l/m 0 min 0 min 0 W/m 6,4 km/h (2 Bft) 100,00 %
29.10.2023 04:44 13,1 C 12,8 C 8,9 C 93 % 992,5 hPa 0,0 l/m 0 min 0 min 0 W/m 12,9 km/h (3 Bft) 97,87 %
29.10.2023 04:46 13,2 C 12,8 C 8,9 C 93 % 992,5 hPa 0,0 l/m 0 min 0 min 0 W/m 12,9 km/h (3 Bft) 100,00 %
29.10.2023 04:48 13,2 C 12,8 C 8,9 C 93 % 992,5 hPa 0,0 l/m 0 min 0 min 0 W/m 16,1 km/h (3 Bft) 100,00 %
29.10.2023 04:50 13,2 C 12,8 C 8,9 C 93 % 992,5 hPa 0,0 l/m 0 min 0 min 0 W/m 6,4 km/h (2 Bft) 100,00 %
29.10.2023 04:52 13,2 C 12,8 C 8,9 C 93 % 992,6 hPa 0,0 l/m 0 min 0 min 0 W/m 16,1 km/h (3 Bft) 100,00 %
29.10.2023 04:54 13,2 C 12,8 C 8,9 C 92 % 992,5 hPa 0,0 l/m 0 min 0 min 0 W/m 22,5 km/h (4 Bft) 100,00 %
29.10.2023 04:56 13,2 C 12,8 C 8,9 C 92 % 992,5 hPa 0,0 l/m 0 min 0 min 0 W/m 16,1 km/h (3 Bft) 100,00 %
29.10.2023 04:58 13,3 C 12,8 C 8,9 C 92 % 992,6 hPa 0,0 l/m 0 min 0 min 0 W/m 16,1 km/h (3 Bft) 97,87 %
29.10.2023 05:00 13,4 C 12,8 C 8,9 C 92 % 992,4 hPa 0,0 l/m 0 min 0 min 0 W/m 12,9 km/h (3 Bft) 100,00 %
29.10.2023 05:02 13,4 C 12,8 C 8,9 C 92 % 992,4 hPa 0,0 l/m 0 min 0 min 0 W/m 19,3 km/h (3 Bft) 97,87 %
29.10.2023 05:04 13,4 C 12,8 C 8,9 C 92 % 992,4 hPa 0,0 l/m 0 min 0 min 0 W/m 16,1 km/h (3 Bft) 100,00 %
29.10.2023 05:06 13,5 C 12,8 C 8,9 C 92 % 992,5 hPa 0,0 l/m 0 min 0 min 0 W/m 16,1 km/h (3 Bft) 100,00 %
29.10.2023 05:08 13,5 C 12,8 C 8,9 C 91 % 992,5 hPa 0,0 l/m 0 min 0 min 0 W/m 16,1 km/h (3 Bft) 97,87 %
29.10.2023 05:10 13,6 C 12,8 C 8,9 C 91 % 992,5 hPa 0,0 l/m 0 min 0 min 0 W/m 12,9 km/h (3 Bft) 97,87 %
29.10.2023 05:12 13,6 C 12,8 C 8,9 C 91 % 992,4 hPa 0,0 l/m 0 min 0 min 0 W/m 35,4 km/h (5 Bft) 97,87 %
29.10.2023 05:14 13,6 C 13,3 C 8,9 C 91 % 992,4 hPa 0,0 l/m 0 min 0 min 0 W/m 16,1 km/h (3 Bft) 97,87 %
29.10.2023 05:16 13,7 C 13,3 C 8,9 C 91 % 992,5 hPa 0,0 l/m 0 min 0 min 0 W/m 25,7 km/h (4 Bft) 100,00 %
29.10.2023 05:18 13,7 C 13,3 C 8,9 C 91 % 992,7 hPa 0,0 l/m 0 min 0 min 0 W/m 19,3 km/h (3 Bft) 95,74 %
29.10.2023 05:20 13,7 C 13,3 C 8,9 C 90 % 992,7 hPa 0,0 l/m 0 min 0 min 0 W/m 12,9 km/h (3 Bft) 95,74 %
29.10.2023 05:22 13,8 C 13,3 C 8,9 C 90 % 992,8 hPa 0,0 l/m 0 min 0 min 0 W/m 29,0 km/h (5 Bft) 97,87 %
29.10.2023 05:24 13,8 C 13,3 C 8,9 C 90 % 992,8 hPa 0,0 l/m 0 min 0 min 0 W/m 25,7 km/h (4 Bft) 97,87 %
29.10.2023 05:26 13,8 C 13,3 C 8,9 C 90 % 992,8 hPa 0,0 l/m 0 min 0 min 0 W/m 25,7 km/h (4 Bft) 95,74 %
29.10.2023 05:28 13,8 C 13,3 C 8,9 C 90 % 992,8 hPa 0,0 l/m 0 min 0 min 0 W/m 19,3 km/h (3 Bft) 97,87 %
29.10.2023 05:30 13,8 C 13,3 C 8,9 C 90 % 992,8 hPa 0,0 l/m 0 min 0 min 0 W/m 29,0 km/h (5 Bft) 95,74 %
29.10.2023 05:32 13,9 C 13,3 C 8,9 C 89 % 992,8 hPa 0,0 l/m 0 min 0 min 0 W/m 19,3 km/h (3 Bft) 95,74 %
29.10.2023 05:34 13,9 C 13,3 C 8,9 C 89 % 992,8 hPa 0,0 l/m 0 min 0 min 0 W/m 22,5 km/h (4 Bft) 97,83 %
29.10.2023 05:36 14,0 C 13,3 C 8,9 C 89 % 992,9 hPa 0,0 l/m 0 min 0 min 0 W/m 19,3 km/h (3 Bft) 97,87 %
29.10.2023 05:38 14,0 C 13,3 C 8,9 C 89 % 992,9 hPa 0,0 l/m 0 min 0 min 0 W/m 32,2 km/h (5 Bft) 95,74 %
29.10.2023 05:40 14,1 C 13,3 C 8,9 C 89 % 992,8 hPa 0,0 l/m 0 min 0 min 0 W/m 22,5 km/h (4 Bft) 95,74 %
29.10.2023 05:42 14,1 C 13,3 C 8,9 C 88 % 992,7 hPa 0,0 l/m 0 min 0 min 0 W/m 35,4 km/h (5 Bft) 91,49 %
29.10.2023 05:44 14,1 C 13,3 C 8,9 C 88 % 992,8 hPa 0,0 l/m 0 min 0 min 0 W/m 25,7 km/h (4 Bft) 95,74 %
29.10.2023 05:46 14,1 C 13,3 C 8,9 C 88 % 992,7 hPa 0,0 l/m 0 min 0 min 0 W/m 16,1 km/h (3 Bft) 95,74 %
29.10.2023 05:48 14,1 C 13,3 C 8,9 C 88 % 992,6 hPa 0,0 l/m 0 min 0 min 0 W/m 12,9 km/h (3 Bft) 95,74 %
29.10.2023 05:50 14,1 C 13,3 C 8,9 C 88 % 992,6 hPa 0,0 l/m 0 min 0 min 0 W/m 22,5 km/h (4 Bft) 97,87 %
29.10.2023 05:52 14,1 C 13,3 C 8,9 C 88 % 992,5 hPa 0,0 l/m 0 min 0 min 0 W/m 16,1 km/h (3 Bft) 97,83 %
29.10.2023 05:54 14,1 C 13,3 C 8,9 C 88 % 992,5 hPa 0,0 l/m 0 min 0 min 0 W/m 16,1 km/h (3 Bft) 97,87 %
29.10.2023 05:56 14,1 C 13,3 C 8,9 C 88 % 992,6 hPa 0,0 l/m 0 min 0 min 0 W/m 19,3 km/h (3 Bft) 97,87 %
29.10.2023 05:58 14,1 C 13,3 C 8,9 C 88 % 992,8 hPa 0,0 l/m 0 min 0 min 0 W/m 22,5 km/h (4 Bft) 97,87 %
29.10.2023 06:00 14,1 C 13,3 C 8,9 C 88 % 992,8 hPa 0,0 l/m 0 min 0 min 0 W/m 19,3 km/h (3 Bft) 97,87 %
29.10.2023 06:02 14,1 C 13,3 C 8,9 C 88 % 992,7 hPa 0,0 l/m 0 min 0 min 0 W/m 19,3 km/h (3 Bft) 95,74 %
29.10.2023 06:04 14,1 C 13,3 C 8,9 C 88 % 992,7 hPa 0,0 l/m 0 min 0 min 0 W/m 12,9 km/h (3 Bft) 97,96 %
29.10.2023 06:08 14,1 C 13,3 C 8,9 C 88 % 992,7 hPa 0,0 l/m 0 min 0 min 0 W/m 6,4 km/h (2 Bft) 97,73 %
29.10.2023 06:10 14,1 C 13,3 C 8,9 C 88 % 992,8 hPa 0,0 l/m 0 min 0 min 0 W/m 12,9 km/h (3 Bft) 97,87 %
29.10.2023 06:12 14,1 C 13,3 C 8,9 C 87 % 992,9 hPa 0,0 l/m 0 min 0 min 0 W/m 16,1 km/h (3 Bft) 97,83 %
29.10.2023 06:16 14,1 C 13,3 C 8,9 C 87 % 992,9 hPa 0,0 l/m 0 min 0 min 0 W/m 19,3 km/h (3 Bft) 96,81 %
29.10.2023 06:18 14,1 C 13,3 C 8,9 C 87 % 992,9 hPa 0,0 l/m 0 min 0 min 0 W/m 16,1 km/h (3 Bft) 97,87 %
29.10.2023 06:20 14,1 C 13,3 C 8,9 C 87 % 993,0 hPa 0,0 l/m 0 min 0 min 0 W/m 16,1 km/h (3 Bft) 97,87 %
29.10.2023 06:22 14,2 C 13,3 C 8,9 C 87 % 993,1 hPa 0,0 l/m 0 min 0 min 0 W/m 19,3 km/h (3 Bft) 100,00 %
29.10.2023 06:24 14,2 C 13,3 C 8,9 C 87 % 993,1 hPa 0,0 l/m 0 min 0 min 0 W/m 16,1 km/h (3 Bft) 100,00 %
29.10.2023 06:26 14,2 C 13,3 C 8,9 C 87 % 993,1 hPa 0,0 l/m 0 min 0 min 0 W/m 19,3 km/h (3 Bft) 100,00 %
29.10.2023 06:28 14,2 C 13,3 C 8,9 C 87 % 993,1 hPa 0,0 l/m 0 min 0 min 0 W/m 22,5 km/h (4 Bft) 100,00 %
29.10.2023 06:30 14,2 C 13,3 C 8,9 C 87 % 993,1 hPa 0,0 l/m 0 min 0 min 0 W/m 22,5 km/h (4 Bft) 100,00 %
29.10.2023 06:32 14,2 C 13,3 C 8,9 C 86 % 993,0 hPa 0,0 l/m 0 min 0 min 0 W/m 19,3 km/h (3 Bft) 100,00 %
29.10.2023 06:34 14,2 C 13,3 C 8,9 C 87 % 993,0 hPa 0,0 l/m 0 min 0 min 0 W/m 29,0 km/h (5 Bft) 100,00 %
29.10.2023 06:36 14,2 C 13,3 C 8,9 C 87 % 993,0 hPa 0,0 l/m 0 min 0 min 0 W/m 16,1 km/h (3 Bft) 100,00 %
29.10.2023 06:38 14,2 C 13,3 C 8,9 C 87 % 993,0 hPa 0,0 l/m 0 min 0 min 0 W/m 12,9 km/h (3 Bft) 97,87 %
29.10.2023 06:40 14,2 C 13,3 C 8,9 C 87 % 993,0 hPa 0,0 l/m 0 min 0 min 0 W/m 16,1 km/h (3 Bft) 100,00 %
29.10.2023 06:42 14,1 C 13,3 C 8,9 C 87 % 992,9 hPa 0,0 l/m 0 min 0 min 0 W/m 35,4 km/h (5 Bft) 100,00 %
29.10.2023 06:44 14,2 C 13,3 C 8,9 C 87 % 993,0 hPa 0,0 l/m 0 min 0 min 0 W/m 16,1 km/h (3 Bft) 100,00 %
29.10.2023 06:46 14,1 C 13,3 C 8,9 C 87 % 993,0 hPa 0,0 l/m 0 min 0 min 0 W/m 9,7 km/h (2 Bft) 100,00 %
29.10.2023 06:48 14,1 C 13,3 C 8,9 C 86 % 993,1 hPa 0,0 l/m 0 min 0 min 0 W/m 6,4 km/h (2 Bft) 95,74 %
29.10.2023 06:50 14,1 C 13,3 C 8,9 C 87 % 993,1 hPa 0,0 l/m 0 min 0 min 0 W/m 16,1 km/h (3 Bft) 97,83 %
29.10.2023 06:52 14,1 C 13,3 C 8,9 C 87 % 993,1 hPa 0,0 l/m 0 min 0 min 0 W/m 25,7 km/h (4 Bft) 97,87 %
29.10.2023 06:54 14,1 C 13,3 C 8,9 C 87 % 993,1 hPa 0,0 l/m 0 min 0 min 0 W/m 12,9 km/h (3 Bft) 97,87 %
29.10.2023 06:56 14,1 C 13,3 C 8,9 C 87 % 993,1 hPa 0,0 l/m 0 min 0 min 0 W/m 12,9 km/h (3 Bft) 95,74 %
29.10.2023 06:58 14,1 C 13,3 C 8,9 C 87 % 993,1 hPa 0,0 l/m 0 min 0 min 0 W/m 19,3 km/h (3 Bft) 95,74 %
29.10.2023 07:00 14,1 C 13,3 C 8,9 C 87 % 993,2 hPa 0,0 l/m 0 min 0 min 0 W/m 25,7 km/h (4 Bft) 95,74 %
29.10.2023 07:02 14,1 C 13,3 C 8,9 C 86 % 993,2 hPa 0,0 l/m 0 min 0 min 0 W/m 38,6 km/h (5 Bft) 93,62 %
29.10.2023 07:04 14,2 C 13,3 C 8,9 C 86 % 993,2 hPa 0,0 l/m 0 min 0 min 0 W/m 25,7 km/h (4 Bft) 98,00 %
29.10.2023 07:10 14,2 C 13,3 C 9,4 C 86 % 993,3 hPa 0,0 l/m 0 min 0 min 0 W/m 41,8 km/h (6 Bft) 96,53 %
29.10.2023 07:12 14,2 C 13,3 C 10,0 C 86 % 993,3 hPa 0,0 l/m 0 min 0 min 0 W/m 29,0 km/h (5 Bft) 93,62 %
29.10.2023 07:14 14,2 C 13,3 C 10,0 C 86 % 993,4 hPa 0,0 l/m 0 min 0 min 0 W/m 35,4 km/h (5 Bft) 95,74 %
29.10.2023 07:16 14,2 C 13,3 C 10,0 C 86 % 993,3 hPa 0,0 l/m 0 min 0 min 0 W/m 29,0 km/h (5 Bft) 91,49 %
29.10.2023 07:18 14,3 C 13,3 C 10,0 C 86 % 993,4 hPa 0,0 l/m 0 min 0 min 0 W/m 25,7 km/h (4 Bft) 93,62 %
29.10.2023 07:20 14,3 C 13,3 C 10,0 C 85 % 993,5 hPa 0,0 l/m 0 min 0 min 0 W/m 25,7 km/h (4 Bft) 95,74 %
29.10.2023 07:22 14,3 C 13,3 C 10,0 C 85 % 993,4 hPa 0,0 l/m 0 min 0 min 0 W/m 19,3 km/h (3 Bft) 95,65 %
29.10.2023 07:24 14,2 C 13,3 C 10,0 C 85 % 993,6 hPa 0,0 l/m 0 min 0 min 0 W/m 19,3 km/h (3 Bft) 93,62 %
29.10.2023 07:26 14,2 C 13,3 C 10,0 C 85 % 993,7 hPa 0,0 l/m 0 min 0 min 0 W/m 19,3 km/h (3 Bft) 95,74 %
29.10.2023 07:28 14,1 C 13,3 C 10,0 C 86 % 993,7 hPa 0,0 l/m 0 min 0 min 0 W/m 22,5 km/h (4 Bft) 95,74 %
29.10.2023 07:30 14,1 C 12,8 C 9,4 C 86 % 993,7 hPa 0,0 l/m 0 min 0 min 0 W/m 12,9 km/h (3 Bft) 93,62 %
29.10.2023 07:32 14,1 C 13,3 C 9,4 C 86 % 993,7 hPa 0,0 l/m 0 min 0 min 0 W/m 35,4 km/h (5 Bft) 93,62 %
29.10.2023 07:34 14,1 C 13,3 C 10,0 C 86 % 993,8 hPa 0,0 l/m 0 min 0 min 0 W/m 35,4 km/h (5 Bft) 95,74 %
29.10.2023 07:36 14,0 C 13,3 C 10,0 C 86 % 993,8 hPa 0,0 l/m 0 min 0 min 5 W/m 19,3 km/h (3 Bft) 97,87 %
29.10.2023 07:38 14,0 C 13,3 C 10,0 C 86 % 993,9 hPa 0,0 l/m 0 min 0 min 5 W/m 32,2 km/h (5 Bft) 95,74 %
29.10.2023 07:40 14,0 C 13,3 C 10,0 C 85 % 993,8 hPa 0,0 l/m 0 min 0 min 5 W/m 19,3 km/h (3 Bft) 97,83 %
29.10.2023 07:42 14,0 C 13,3 C 10,0 C 85 % 993,9 hPa 0,0 l/m 0 min 0 min 5 W/m 29,0 km/h (5 Bft) 100,00 %
29.10.2023 07:44 14,0 C 13,3 C 10,0 C 85 % 993,9 hPa 0,0 l/m 0 min 0 min 5 W/m 25,7 km/h (4 Bft) 100,00 %
29.10.2023 07:46 14,0 C 13,3 C 10,0 C 85 % 994,0 hPa 0,0 l/m 0 min 0 min 5 W/m 35,4 km/h (5 Bft) 100,00 %
29.10.2023 07:48 14,0 C 13,3 C 10,0 C 85 % 994,0 hPa 0,0 l/m 0 min 0 min 6 W/m 25,7 km/h (4 Bft) 97,87 %
29.10.2023 07:50 14,0 C 13,3 C 10,0 C 85 % 994,1 hPa 0,0 l/m 0 min 0 min 7 W/m 29,0 km/h (5 Bft) 100,00 %
29.10.2023 07:52 14,0 C 13,3 C 10,0 C 85 % 994,0 hPa 0,0 l/m 0 min 0 min 7 W/m 32,2 km/h (5 Bft) 100,00 %
29.10.2023 07:54 13,9 C 13,3 C 10,0 C 85 % 994,0 hPa 0,0 l/m 0 min 0 min 7 W/m 22,5 km/h (4 Bft) 97,87 %
29.10.2023 07:56 13,9 C 13,3 C 10,0 C 85 % 994,1 hPa 0,0 l/m 0 min 0 min 7 W/m 32,2 km/h (5 Bft) 97,87 %
29.10.2023 07:58 14,0 C 13,3 C 10,0 C 85 % 994,1 hPa 0,0 l/m 0 min 0 min 9 W/m 25,7 km/h (4 Bft) 97,87 %
29.10.2023 08:00 14,0 C 13,3 C 10,0 C 85 % 994,3 hPa 0,0 l/m 0 min 0 min 9 W/m 57,9 km/h (7 Bft) 97,87 %
29.10.2023 08:02 14,0 C 13,3 C 10,0 C 85 % 994,2 hPa 0,0 l/m 0 min 0 min 9 W/m 22,5 km/h (4 Bft) 97,87 %
29.10.2023 08:04 14,0 C 13,3 C 9,4 C 85 % 994,2 hPa 0,0 l/m 0 min 0 min 11 W/m 29,0 km/h (5 Bft) 100,00 %
29.10.2023 08:10 13,9 C 12,8 C 9,4 C 85 % 994,3 hPa 0,0 l/m 0 min 0 min 12 W/m 22,5 km/h (4 Bft) 99,31 %
29.10.2023 08:12 13,9 C 12,8 C 9,4 C 85 % 994,3 hPa 0,0 l/m 0 min 0 min 11 W/m 16,1 km/h (3 Bft) 97,87 %
29.10.2023 08:14 13,9 C 12,8 C 9,4 C 86 % 994,4 hPa 0,0 l/m 0 min 0 min 9 W/m 19,3 km/h (3 Bft) 95,74 %
29.10.2023 08:16 13,8 C 12,8 C 9,4 C 86 % 994,4 hPa 0,0 l/m 0 min 0 min 9 W/m 19,3 km/h (3 Bft) 97,87 %
29.10.2023 08:18 13,8 C 12,8 C 9,4 C 86 % 994,4 hPa 0,0 l/m 0 min 0 min 9 W/m 19,3 km/h (3 Bft) 97,87 %
29.10.2023 08:20 13,7 C 12,8 C 9,4 C 86 % 994,3 hPa 0,0 l/m 0 min 0 min 10 W/m 16,1 km/h (3 Bft) 97,83 %
29.10.2023 08:22 13,7 C 12,8 C 9,4 C 86 % 994,4 hPa 0,0 l/m 0 min 0 min 11 W/m 12,9 km/h (3 Bft) 95,92 %
29.10.2023 08:24 13,7 C 12,8 C 9,4 C 86 % 994,5 hPa 0,0 l/m 0 min 0 min 11 W/m 19,3 km/h (3 Bft) 97,83 %
29.10.2023 08:26 13,6 C 12,8 C 9,4 C 86 % 994,6 hPa 0,0 l/m 0 min 0 min 11 W/m 25,7 km/h (4 Bft) 95,74 %
29.10.2023 08:28 13,6 C 12,8 C 9,4 C 86 % 994,5 hPa 0,0 l/m 0 min 0 min 11 W/m 22,5 km/h (4 Bft) 97,87 %
29.10.2023 08:30 13,6 C 12,8 C 9,4 C 86 % 994,5 hPa 0,0 l/m 0 min 0 min 12 W/m 12,9 km/h (3 Bft) 97,87 %
29.10.2023 08:32 13,6 C 12,8 C 9,4 C 87 % 994,6 hPa 0,0 l/m 0 min 0 min 12 W/m 12,9 km/h (3 Bft) 97,87 %
29.10.2023 08:34 13,6 C 12,8 C 9,4 C 87 % 994,5 hPa 0,0 l/m 0 min 0 min 12 W/m 12,9 km/h (3 Bft) 95,74 %
29.10.2023 08:36 13,5 C 12,8 C 9,4 C 87 % 994,5 hPa 0,0 l/m 0 min 0 min 12 W/m 9,7 km/h (2 Bft) 95,74 %
29.10.2023 08:38 13,5 C 12,8 C 9,4 C 87 % 994,5 hPa 0,0 l/m 0 min 0 min 13 W/m 16,1 km/h (3 Bft) 95,74 %
29.10.2023 08:40 13,4 C 12,8 C 9,4 C 87 % 994,4 hPa 0,0 l/m 0 min 0 min 14 W/m 6,4 km/h (2 Bft) 97,83 %
29.10.2023 08:42 13,4 C 12,2 C 8,9 C 87 % 994,4 hPa 0,0 l/m 0 min 0 min 16 W/m 12,9 km/h (3 Bft) 95,74 %
29.10.2023 08:44 13,4 C 12,2 C 8,9 C 87 % 994,4 hPa 0,0 l/m 0 min 0 min 16 W/m 12,9 km/h (3 Bft) 97,87 %
29.10.2023 08:46 13,3 C 12,2 C 8,9 C 87 % 994,4 hPa 0,0 l/m 0 min 0 min 18 W/m 12,9 km/h (3 Bft) 97,87 %
29.10.2023 08:48 13,3 C 12,2 C 8,9 C 87 % 994,5 hPa 0,0 l/m 0 min 0 min 19 W/m 6,4 km/h (2 Bft) 97,87 %
29.10.2023 08:50 13,3 C 12,2 C 8,9 C 87 % 994,6 hPa 0,0 l/m 0 min 0 min 19 W/m 12,9 km/h (3 Bft) 97,87 %
29.10.2023 08:52 13,3 C 12,2 C 8,9 C 87 % 994,4 hPa 0,0 l/m 0 min 0 min 20 W/m 16,1 km/h (3 Bft) 97,87 %
29.10.2023 08:54 13,3 C 12,8 C 8,9 C 87 % 994,5 hPa 0,0 l/m 0 min 0 min 28 W/m 16,1 km/h (3 Bft) 97,87 %
29.10.2023 08:56 13,3 C 12,8 C 8,9 C 88 % 994,7 hPa 0,0 l/m 0 min 0 min 29 W/m 12,9 km/h (3 Bft) 97,87 %
29.10.2023 08:58 13,3 C 12,8 C 8,9 C 88 % 994,8 hPa 0,0 l/m 0 min 0 min 23 W/m 6,4 km/h (2 Bft) 100,00 %
29.10.2023 09:00 13,3 C 12,8 C 8,9 C 88 % 995,1 hPa 0,0 l/m 0 min 0 min 21 W/m 12,9 km/h (3 Bft) 100,00 %
29.10.2023 09:02 13,3 C 12,8 C 9,4 C 88 % 995,2 hPa 0,0 l/m 0 min 0 min 19 W/m 12,9 km/h (3 Bft) 97,87 %
29.10.2023 09:04 13,3 C 12,8 C 9,4 C 88 % 995,3 hPa 0,0 l/m 0 min 0 min 16 W/m 19,3 km/h (3 Bft) 97,83 %
29.10.2023 09:10 13,3 C 12,8 C 9,4 C 88 % 995,5 hPa 0,0 l/m 0 min 0 min 18 W/m 22,5 km/h (4 Bft) 96,12 %
29.10.2023 09:12 13,3 C 12,8 C 8,9 C 88 % 995,4 hPa 0,0 l/m 0 min 0 min 21 W/m 16,1 km/h (3 Bft) 97,87 %
29.10.2023 09:14 13,2 C 12,8 C 9,4 C 88 % 995,3 hPa 0,0 l/m 0 min 0 min 19 W/m 19,3 km/h (3 Bft) 97,87 %
29.10.2023 09:16 13,3 C 12,8 C 9,4 C 88 % 995,3 hPa 0,0 l/m 0 min 0 min 19 W/m 16,1 km/h (3 Bft) 97,83 %
29.10.2023 09:18 13,3 C 12,8 C 9,4 C 88 % 995,2 hPa 0,0 l/m 0 min 0 min 22 W/m 12,9 km/h (3 Bft) 97,87 %
29.10.2023 09:20 13,2 C 12,8 C 9,4 C 88 % 995,1 hPa 0,0 l/m 0 min 0 min 21 W/m 16,1 km/h (3 Bft) 97,87 %
29.10.2023 09:22 13,2 C 12,8 C 9,4 C 88 % 995,1 hPa 0,0 l/m 0 min 0 min 22 W/m 12,9 km/h (3 Bft) 93,62 %
29.10.2023 09:24 13,2 C 12,8 C 9,4 C 87 % 995,1 hPa 0,0 l/m 0 min 0 min 22 W/m 12,9 km/h (3 Bft) 97,87 %
29.10.2023 09:26 13,3 C 12,8 C 9,4 C 87 % 995,0 hPa 0,0 l/m 0 min 0 min 24 W/m 12,9 km/h (3 Bft) 98,18 %
29.10.2023 09:28 13,3 C 12,8 C 9,4 C 87 % 995,0 hPa 0,0 l/m 0 min 0 min 24 W/m 29,0 km/h (5 Bft) 97,87 %
29.10.2023 09:30 13,3 C 12,8 C 9,4 C 87 % 995,1 hPa 0,0 l/m 0 min 0 min 31 W/m 12,9 km/h (3 Bft) 100,00 %
29.10.2023 09:32 13,3 C 12,8 C 9,4 C 87 % 995,2 hPa 0,0 l/m 0 min 0 min 40 W/m 19,3 km/h (3 Bft) 93,62 %
29.10.2023 09:34 13,3 C 12,8 C 9,4 C 87 % 995,2 hPa 0,0 l/m 0 min 0 min 46 W/m 22,5 km/h (4 Bft) 97,83 %
29.10.2023 09:36 13,2 C 12,8 C 9,4 C 87 % 995,3 hPa 0,0 l/m 0 min 0 min 51 W/m 9,7 km/h (2 Bft) 95,74 %
29.10.2023 09:38 13,2 C 12,8 C 9,4 C 87 % 995,3 hPa 0,0 l/m 0 min 0 min 57 W/m 12,9 km/h (3 Bft) 100,00 %
29.10.2023 09:40 13,2 C 12,8 C 9,4 C 87 % 995,3 hPa 0,0 l/m 0 min 0 min 58 W/m 25,7 km/h (4 Bft) 100,00 %
29.10.2023 09:42 13,3 C 12,8 C 9,4 C 87 % 995,4 hPa 0,0 l/m 0 min 0 min 56 W/m 19,3 km/h (3 Bft) 97,87 %
29.10.2023 09:44 13,3 C 12,8 C 9,4 C 87 % 995,4 hPa 0,0 l/m 0 min 0 min 61 W/m 12,9 km/h (3 Bft) 97,87 %
29.10.2023 09:46 13,3 C 12,8 C 9,4 C 87 % 995,4 hPa 0,0 l/m 0 min 0 min 64 W/m 9,7 km/h (2 Bft) 95,74 %
29.10.2023 09:48 13,3 C 12,8 C 9,4 C 87 % 995,4 hPa 0,0 l/m 0 min 0 min 71 W/m 12,9 km/h (3 Bft) 97,87 %
29.10.2023 09:50 13,3 C 12,8 C 9,4 C 87 % 995,5 hPa 0,0 l/m 0 min 0 min 79 W/m 22,5 km/h (4 Bft) 97,87 %
29.10.2023 09:52 13,3 C 12,8 C 9,4 C 87 % 995,5 hPa 0,0 l/m 0 min 0 min 84 W/m 16,1 km/h (3 Bft) 97,83 %
29.10.2023 09:54 13,3 C 12,8 C 9,4 C 87 % 995,4 hPa 0,0 l/m 0 min 0 min 90 W/m 16,1 km/h (3 Bft) 91,84 %
29.10.2023 09:56 13,3 C 13,3 C 9,4 C 87 % 995,5 hPa 0,0 l/m 0 min 0 min 91 W/m 32,2 km/h (5 Bft) 93,62 %
29.10.2023 09:58 13,4 C 13,3 C 9,4 C 86 % 995,7 hPa 0,0 l/m 0 min 0 min 95 W/m 29,0 km/h (5 Bft) 97,87 %
29.10.2023 10:00 13,4 C 13,3 C 9,4 C 86 % 995,7 hPa 0,0 l/m 0 min 0 min 95 W/m 35,4 km/h (5 Bft) 97,87 %
29.10.2023 10:02 13,5 C 13,3 C 9,4 C 86 % 995,8 hPa 0,0 l/m 0 min 0 min 96 W/m 19,3 km/h (3 Bft) 97,87 %
29.10.2023 10:04 13,6 C 13,3 C 10,0 C 86 % 995,6 hPa 0,0 l/m 0 min 0 min 99 W/m 16,1 km/h (3 Bft) 97,67 %
29.10.2023 10:10 13,7 C 13,3 C 10,0 C 85 % 995,7 hPa 0,0 l/m 0 min 0 min 95 W/m 32,2 km/h (5 Bft) 97,83 %
29.10.2023 10:12 13,7 C 13,3 C 10,0 C 85 % 995,7 hPa 0,0 l/m 0 min 0 min 80 W/m 32,2 km/h (5 Bft) 97,83 %
29.10.2023 10:14 13,7 C 13,3 C 10,0 C 84 % 995,9 hPa 0,0 l/m 0 min 0 min 84 W/m 25,7 km/h (4 Bft) 95,74 %
29.10.2023 10:16 13,8 C 13,3 C 10,0 C 84 % 995,7 hPa 0,0 l/m 0 min 0 min 89 W/m 25,7 km/h (4 Bft) 97,87 %
29.10.2023 10:18 13,8 C 13,3 C 10,0 C 84 % 995,7 hPa 0,0 l/m 0 min 0 min 95 W/m 29,0 km/h (5 Bft) 97,87 %
29.10.2023 10:20 13,8 C 13,3 C 10,0 C 84 % 995,9 hPa 0,0 l/m 0 min 0 min 95 W/m 22,5 km/h (4 Bft) 97,87 %
29.10.2023 10:22 13,8 C 13,9 C 10,0 C 84 % 995,9 hPa 0,0 l/m 0 min 0 min 92 W/m 25,7 km/h (4 Bft) 97,87 %
29.10.2023 10:24 13,8 C 13,9 C 10,0 C 84 % 996,0 hPa 0,0 l/m 0 min 0 min 89 W/m 29,0 km/h (5 Bft) 97,87 %
29.10.2023 10:26 13,9 C 13,3 C 10,0 C 84 % 996,0 hPa 0,0 l/m 0 min 0 min 83 W/m 25,7 km/h (4 Bft) 95,74 %
29.10.2023 10:28 13,9 C 13,3 C 10,0 C 84 % 996,1 hPa 0,0 l/m 0 min 0 min 69 W/m 25,7 km/h (4 Bft) 97,87 %
29.10.2023 10:30 13,9 C 13,3 C 10,0 C 84 % 996,1 hPa 0,0 l/m 0 min 0 min 64 W/m 32,2 km/h (5 Bft) 100,00 %
29.10.2023 10:32 13,9 C 13,3 C 10,0 C 84 % 996,0 hPa 0,0 l/m 0 min 0 min 75 W/m 25,7 km/h (4 Bft) 95,65 %
29.10.2023 10:34 13,9 C 13,3 C 10,0 C 84 % 996,1 hPa 0,0 l/m 0 min 0 min 90 W/m 12,9 km/h (3 Bft) 100,00 %
29.10.2023 10:36 13,9 C 13,3 C 10,0 C 84 % 996,0 hPa 0,0 l/m 0 min 0 min 107 W/m 19,3 km/h (3 Bft) 100,00 %
29.10.2023 10:38 13,9 C 13,3 C 10,0 C 84 % 995,9 hPa 0,0 l/m 0 min 0 min 120 W/m 25,7 km/h (4 Bft) 100,00 %
29.10.2023 10:40 13,9 C 13,9 C 10,0 C 84 % 996,0 hPa 0,0 l/m 0 min 0 min 129 W/m 9,7 km/h (2 Bft) 100,00 %
29.10.2023 10:42 13,9 C 13,9 C 10,0 C 84 % 996,0 hPa 0,0 l/m 0 min 0 min 130 W/m 19,3 km/h (3 Bft) 100,00 %
29.10.2023 10:44 13,9 C 13,9 C 10,0 C 84 % 996,0 hPa 0,0 l/m 0 min 0 min 127 W/m 22,5 km/h (4 Bft) 97,87 %
29.10.2023 10:46 14,0 C 13,9 C 10,0 C 84 % 996,0 hPa 0,0 l/m 0 min 0 min 125 W/m 19,3 km/h (3 Bft) 100,00 %
29.10.2023 10:48 14,0 C 13,9 C 10,0 C 84 % 996,0 hPa 0,0 l/m 0 min 0 min 126 W/m 19,3 km/h (3 Bft) 100,00 %
29.10.2023 10:50 14,1 C 13,9 C 10,0 C 84 % 995,9 hPa 0,0 l/m 0 min 0 min 128 W/m 25,7 km/h (4 Bft) 97,87 %
29.10.2023 10:52 14,1 C 13,9 C 10,0 C 84 % 995,9 hPa 0,0 l/m 0 min 0 min 131 W/m 25,7 km/h (4 Bft) 97,83 %
29.10.2023 10:54 14,1 C 13,9 C 10,0 C 84 % 995,9 hPa 0,0 l/m 0 min 0 min 157 W/m 16,1 km/h (3 Bft) 100,00 %
29.10.2023 10:56 14,2 C 14,4 C 10,6 C 84 % 995,8 hPa 0,0 l/m 0 min 0 min 157 W/m 19,3 km/h (3 Bft) 95,74 %
29.10.2023 10:58 14,3 C 14,4 C 10,6 C 84 % 995,8 hPa 0,0 l/m 0 min 0 min 157 W/m 19,3 km/h (3 Bft) 97,96 %
29.10.2023 11:00 14,3 C 14,4 C 10,6 C 84 % 995,9 hPa 0,0 l/m 0 min 0 min 114 W/m 25,7 km/h (4 Bft) 95,74 %
29.10.2023 11:02 14,4 C 14,4 C 10,6 C 83 % 995,8 hPa 0,0 l/m 0 min 0 min 110 W/m 19,3 km/h (3 Bft) 95,74 %
29.10.2023 11:04 14,6 C 15,0 C 10,6 C 83 % 995,9 hPa 0,0 l/m 0 min 0 min 118 W/m 41,8 km/h (6 Bft) 95,65 %
29.10.2023 11:10 14,9 C 15,0 C 11,1 C 82 % 996,0 hPa 0,0 l/m 0 min 0 min 134 W/m 35,4 km/h (5 Bft) 95,71 %
29.10.2023 11:12 15,0 C 15,0 C 11,1 C 81 % 996,0 hPa 0,0 l/m 0 min 0 min 120 W/m 35,4 km/h (5 Bft) 93,62 %
29.10.2023 11:14 15,0 C 15,0 C 11,1 C 80 % 996,0 hPa 0,0 l/m 0 min 0 min 93 W/m 38,6 km/h (5 Bft) 93,62 %
29.10.2023 11:16 15,1 C 15,0 C 11,1 C 80 % 995,9 hPa 0,0 l/m 0 min 0 min 102 W/m 25,7 km/h (4 Bft) 93,62 %
29.10.2023 11:18 15,1 C 15,0 C 10,6 C 80 % 995,8 hPa 0,0 l/m 0 min 0 min 120 W/m 25,7 km/h (4 Bft) 95,74 %
29.10.2023 11:20 15,0 C 14,4 C 10,6 C 80 % 995,7 hPa 0,0 l/m 0 min 0 min 129 W/m 25,7 km/h (4 Bft) 95,74 %
29.10.2023 11:22 15,0 C 14,4 C 10,6 C 80 % 995,8 hPa 0,0 l/m 0 min 0 min 147 W/m 32,2 km/h (5 Bft) 93,62 %
29.10.2023 11:24 15,0 C 15,0 C 11,1 C 79 % 995,8 hPa 0,0 l/m 0 min 0 min 159 W/m 29,0 km/h (5 Bft) 95,74 %
29.10.2023 11:26 14,9 C 14,4 C 11,1 C 79 % 995,8 hPa 0,0 l/m 0 min 0 min 147 W/m 29,0 km/h (5 Bft) 95,65 %
29.10.2023 11:28 14,9 C 14,4 C 10,6 C 80 % 995,8 hPa 0,0 l/m 0 min 0 min 132 W/m 19,3 km/h (3 Bft) 95,74 %
29.10.2023 11:30 14,9 C 14,4 C 10,6 C 80 % 995,8 hPa 0,0 l/m 0 min 0 min 117 W/m 35,4 km/h (5 Bft) 95,74 %
29.10.2023 11:32 14,9 C 14,4 C 10,6 C 80 % 995,5 hPa 0,0 l/m 0 min 0 min 110 W/m 25,7 km/h (4 Bft) 95,74 %
29.10.2023 11:34 14,9 C 14,4 C 10,6 C 79 % 995,6 hPa 0,0 l/m 0 min 0 min 105 W/m 22,5 km/h (4 Bft) 91,49 %
29.10.2023 11:36 14,9 C 14,4 C 10,6 C 80 % 995,6 hPa 0,0 l/m 0 min 0 min 105 W/m 22,5 km/h (4 Bft) 93,62 %
29.10.2023 11:38 14,9 C 14,4 C 10,6 C 80 % 995,5 hPa 0,0 l/m 0 min 0 min 119 W/m 19,3 km/h (3 Bft) 95,74 %
29.10.2023 11:40 14,9 C 14,4 C 10,6 C 79 % 995,4 hPa 0,0 l/m 0 min 0 min 127 W/m 22,5 km/h (4 Bft) 97,87 %
29.10.2023 11:42 14,9 C 14,4 C 10,6 C 80 % 995,6 hPa 0,0 l/m 0 min 0 min 117 W/m 25,7 km/h (4 Bft) 98,08 %
29.10.2023 11:44 14,9 C 14,4 C 10,6 C 80 % 995,8 hPa 0,0 l/m 0 min 0 min 111 W/m 19,3 km/h (3 Bft) 97,87 %
29.10.2023 11:46 14,9 C 14,4 C 10,6 C 80 % 995,7 hPa 0,0 l/m 0 min 0 min 113 W/m 19,3 km/h (3 Bft) 95,74 %
29.10.2023 11:48 14,9 C 14,4 C 10,6 C 80 % 996,0 hPa 0,0 l/m 0 min 0 min 118 W/m 22,5 km/h (4 Bft) 97,87 %
29.10.2023 11:50 14,9 C 14,4 C 10,6 C 79 % 995,8 hPa 0,0 l/m 0 min 0 min 114 W/m 41,8 km/h (6 Bft) 100,00 %
29.10.2023 11:52 15,0 C 14,4 C 10,6 C 79 % 995,7 hPa 0,0 l/m 0 min 0 min 110 W/m 19,3 km/h (3 Bft) 100,00 %
29.10.2023 11:54 15,0 C 14,4 C 10,6 C 79 % 995,8 hPa 0,0 l/m 0 min 0 min 107 W/m 32,2 km/h (5 Bft) 100,00 %
29.10.2023 11:56 15,1 C 14,4 C 10,6 C 79 % 995,9 hPa 0,0 l/m 0 min 0 min 94 W/m 29,0 km/h (5 Bft) 100,00 %
29.10.2023 11:58 15,1 C 14,4 C 10,6 C 79 % 995,9 hPa 0,0 l/m 0 min 0 min 87 W/m 29,0 km/h (5 Bft) 100,00 %
29.10.2023 12:00 15,1 C 14,4 C 10,6 C 79 % 995,9 hPa 0,0 l/m 0 min 0 min 90 W/m 29,0 km/h (5 Bft) 100,00 %
29.10.2023 12:02 15,1 C 14,4 C 10,6 C 79 % 996,0 hPa 0,0 l/m 0 min 0 min 102 W/m 19,3 km/h (3 Bft) 100,00 %
29.10.2023 12:04 15,1 C 15,0 C 10,6 C 79 % 996,0 hPa 0,0 l/m 0 min 0 min 126 W/m 19,3 km/h (3 Bft) 100,00 %
29.10.2023 12:08 15,2 C 15,0 C 11,1 C 80 % 995,9 hPa 0,0 l/m 0 min 0 min 155 W/m 22,5 km/h (4 Bft) 100,00 %
29.10.2023 12:10 15,2 C 15,6 C 11,1 C 79 % 995,8 hPa 0,0 l/m 0 min 0 min 205 W/m 25,7 km/h (4 Bft) 100,00 %
29.10.2023 12:12 15,4 C 15,6 C 11,1 C 79 % 995,9 hPa 0,0 l/m 2 min 0 min 230 W/m 25,7 km/h (4 Bft) 100,00 %
29.10.2023 12:16 15,7 C 16,1 C 11,7 C 78 % 995,8 hPa 0,0 l/m 4 min 0 min 219 W/m 22,5 km/h (4 Bft) 100,00 %
29.10.2023 12:18 15,7 C 16,1 C 11,7 C 78 % 995,8 hPa 0,0 l/m 2 min 0 min 237 W/m 16,1 km/h (3 Bft) 100,00 %
29.10.2023 12:20 15,8 C 16,1 C 11,7 C 78 % 995,8 hPa 0,0 l/m 2 min 0 min 224 W/m 35,4 km/h (5 Bft) 100,00 %
29.10.2023 12:22 15,8 C 16,1 C 11,7 C 76 % 995,8 hPa 0,0 l/m 2 min 0 min 215 W/m 45,1 km/h (6 Bft) 100,00 %
29.10.2023 12:24 15,9 C 16,1 C 11,7 C 76 % 996,0 hPa 0,0 l/m 2 min 0 min 220 W/m 22,5 km/h (4 Bft) 97,87 %
29.10.2023 12:26 15,9 C 16,1 C 11,7 C 76 % 995,8 hPa 0,0 l/m 2 min 0 min 225 W/m 38,6 km/h (5 Bft) 97,87 %
29.10.2023 12:28 15,9 C 16,1 C 11,7 C 76 % 996,0 hPa 0,0 l/m 2 min 0 min 223 W/m 29,0 km/h (5 Bft) 93,62 %
29.10.2023 12:30 15,9 C 16,1 C 11,7 C 76 % 995,9 hPa 0,0 l/m 2 min 0 min 216 W/m 29,0 km/h (5 Bft) 95,74 %
29.10.2023 12:32 16,0 C 16,1 C 11,7 C 76 % 995,9 hPa 0,0 l/m 0 min 0 min 198 W/m 19,3 km/h (3 Bft) 97,87 %
29.10.2023 12:34 15,9 C 15,6 C 11,7 C 75 % 995,8 hPa 0,0 l/m 0 min 0 min 187 W/m 25,7 km/h (4 Bft) 97,87 %
29.10.2023 12:36 15,9 C 15,6 C 11,7 C 75 % 995,8 hPa 0,0 l/m 0 min 0 min 168 W/m 25,7 km/h (4 Bft) 97,83 %
29.10.2023 12:38 15,9 C 15,6 C 11,7 C 75 % 995,9 hPa 0,0 l/m 0 min 0 min 159 W/m 29,0 km/h (5 Bft) 97,87 %
29.10.2023 12:40 15,9 C 15,6 C 11,7 C 74 % 996,0 hPa 0,0 l/m 0 min 0 min 159 W/m 38,6 km/h (5 Bft) 97,87 %
29.10.2023 12:42 15,9 C 15,6 C 11,7 C 74 % 996,0 hPa 0,0 l/m 0 min 0 min 136 W/m 25,7 km/h (4 Bft) 97,87 %
29.10.2023 12:44 15,9 C 15,6 C 11,7 C 74 % 995,9 hPa 0,0 l/m 0 min 0 min 109 W/m 19,3 km/h (3 Bft) 97,87 %
29.10.2023 12:46 15,9 C 15,6 C 11,1 C 75 % 995,8 hPa 0,0 l/m 0 min 0 min 105 W/m 22,5 km/h (4 Bft) 95,74 %
29.10.2023 12:48 15,9 C 15,6 C 11,1 C 75 % 995,5 hPa 0,0 l/m 0 min 0 min 148 W/m 22,5 km/h (4 Bft) 97,87 %
29.10.2023 12:50 15,8 C 15,0 C 10,6 C 77 % 995,7 hPa 0,0 l/m 0 min 2 min 148 W/m 25,7 km/h (4 Bft) 93,62 %
29.10.2023 12:52 15,8 C 15,0 C 10,6 C 78 % 995,6 hPa 0,0 l/m 0 min 2 min 133 W/m 22,5 km/h (4 Bft) 97,87 %
29.10.2023 12:54 15,7 C 15,0 C 10,6 C 78 % 995,7 hPa 0,0 l/m 0 min 2 min 86 W/m 35,4 km/h (5 Bft) 97,30 %
29.10.2023 12:56 15,5 C 14,4 C 10,0 C 78 % 995,8 hPa 0,0 l/m 0 min 2 min 82 W/m 25,7 km/h (4 Bft) 97,87 %
29.10.2023 12:58 15,4 C 14,4 C 10,0 C 78 % 995,8 hPa 0,0 l/m 0 min 2 min 102 W/m 38,6 km/h (5 Bft) 82,98 %
29.10.2023 13:00 15,2 C 14,4 C 10,0 C 78 % 995,7 hPa 0,0 l/m 0 min 0 min 132 W/m 19,3 km/h (3 Bft) 69,57 %
29.10.2023 13:02 15,2 C 14,4 C 10,0 C 79 % 995,6 hPa 0,0 l/m 0 min 0 min 173 W/m 29,0 km/h (5 Bft) 97,87 %
29.10.2023 13:04 15,1 C 15,0 C 10,0 C 80 % 995,6 hPa 0,0 l/m 2 min 0 min 290 W/m 22,5 km/h (4 Bft) 97,87 %
29.10.2023 13:10 15,0 C 15,0 C 10,0 C 81 % 995,6 hPa 0,0 l/m 5 min 0 min 216 W/m 38,6 km/h (5 Bft) 96,48 %
29.10.2023 13:12 15,0 C 14,4 C 10,0 C 81 % 995,5 hPa 0,0 l/m 0 min 0 min 87 W/m 22,5 km/h (4 Bft) 95,74 %
29.10.2023 13:14 14,9 C 14,4 C 10,0 C 82 % 995,5 hPa 0,0 l/m 0 min 0 min 71 W/m 19,3 km/h (3 Bft) 97,83 %
29.10.2023 13:16 14,9 C 13,9 C 10,0 C 83 % 995,6 hPa 0,0 l/m 0 min 0 min 71 W/m 16,1 km/h (3 Bft) 95,83 %
29.10.2023 13:18 14,8 C 13,9 C 10,0 C 83 % 995,7 hPa 0,0 l/m 0 min 0 min 88 W/m 19,3 km/h (3 Bft) 97,87 %
29.10.2023 13:20 14,7 C 13,9 C 10,0 C 84 % 995,6 hPa 0,0 l/m 0 min 0 min 115 W/m 45,1 km/h (6 Bft) 95,74 %
29.10.2023 13:22 14,6 C 13,9 C 10,0 C 84 % 995,5 hPa 0,0 l/m 0 min 0 min 135 W/m 22,5 km/h (4 Bft) 97,87 %
29.10.2023 13:24 14,5 C 13,9 C 10,0 C 85 % 995,3 hPa 0,0 l/m 0 min 0 min 159 W/m 16,1 km/h (3 Bft) 97,87 %
29.10.2023 13:26 14,5 C 14,4 C 10,6 C 85 % 995,1 hPa 0,0 l/m 0 min 0 min 174 W/m 16,1 km/h (3 Bft) 97,87 %
29.10.2023 13:28 14,5 C 14,4 C 10,6 C 85 % 995,2 hPa 0,0 l/m 0 min 0 min 173 W/m 19,3 km/h (3 Bft) 97,87 %
29.10.2023 13:30 14,4 C 14,4 C 10,6 C 86 % 995,2 hPa 0,0 l/m 0 min 0 min 190 W/m 22,5 km/h (4 Bft) 97,87 %
29.10.2023 13:32 14,5 C 14,4 C 10,6 C 86 % 995,2 hPa 0,0 l/m 2 min 0 min 232 W/m 16,1 km/h (3 Bft) 97,87 %
29.10.2023 13:34 14,5 C 14,4 C 10,6 C 86 % 995,2 hPa 0,0 l/m 0 min 0 min 145 W/m 25,7 km/h (4 Bft) 97,83 %
29.10.2023 13:36 14,5 C 14,4 C 10,6 C 86 % 995,2 hPa 0,0 l/m 0 min 0 min 138 W/m 19,3 km/h (3 Bft) 97,87 %
29.10.2023 13:38 14,4 C 13,9 C 10,6 C 86 % 995,2 hPa 0,0 l/m 0 min 0 min 102 W/m 16,1 km/h (3 Bft) 95,74 %
29.10.2023 13:40 14,4 C 13,9 C 10,6 C 87 % 995,3 hPa 0,0 l/m 0 min 0 min 110 W/m 19,3 km/h (3 Bft) 97,87 %
29.10.2023 13:42 14,4 C 13,9 C 10,6 C 87 % 995,3 hPa 0,0 l/m 0 min 0 min 135 W/m 32,2 km/h (5 Bft) 100,00 %
29.10.2023 13:44 14,3 C 13,9 C 10,0 C 87 % 995,4 hPa 0,0 l/m 0 min 0 min 135 W/m 12,9 km/h (3 Bft) 100,00 %
29.10.2023 13:46 14,3 C 13,9 C 10,0 C 87 % 995,3 hPa 0,0 l/m 0 min 0 min 131 W/m 12,9 km/h (3 Bft) 100,00 %
29.10.2023 13:48 14,3 C 13,9 C 10,0 C 87 % 995,4 hPa 0,0 l/m 0 min 0 min 116 W/m 19,3 km/h (3 Bft) 97,87 %
29.10.2023 13:50 14,3 C 13,9 C 10,0 C 87 % 995,4 hPa 0,0 l/m 0 min 0 min 105 W/m 29,0 km/h (5 Bft) 100,00 %
29.10.2023 13:52 14,3 C 13,9 C 10,0 C 87 % 995,5 hPa 0,0 l/m 0 min 0 min 96 W/m 19,3 km/h (3 Bft) 100,00 %
29.10.2023 13:55 14,3 C 13,9 C 10,0 C 87 % 995,6 hPa 0,0 l/m 0 min 0 min 78 W/m 22,5 km/h (4 Bft) 100,00 %
29.10.2023 14:00 14,1 C 13,9 C 10,0 C 87 % 995,6 hPa 0,0 l/m 0 min 0 min 108 W/m 29,0 km/h (5 Bft) 100,00 %
29.10.2023 14:05 14,2 C 14,4 C 10,0 C 87 % 995,3 hPa 0,0 l/m 0 min 0 min 164 W/m 25,7 km/h (4 Bft) 98,25 %
29.10.2023 14:10 14,3 C 14,4 C 10,6 C 87 % 994,8 hPa 0,0 l/m 0 min 0 min 166 W/m 16,1 km/h (3 Bft) 100,00 %
29.10.2023 14:15 14,3 C 14,4 C 10,6 C 87 % 995,0 hPa 0,0 l/m 5 min 0 min 267 W/m 22,5 km/h (4 Bft) 100,00 %
29.10.2023 14:20 14,4 C 14,4 C 10,6 C 86 % 994,8 hPa 0,0 l/m 0 min 0 min 165 W/m 16,1 km/h (3 Bft) 100,00 %
29.10.2023 14:25 14,4 C 14,4 C 10,6 C 86 % 994,5 hPa 0,0 l/m 5 min 0 min 178 W/m 22,5 km/h (4 Bft) 99,12 %
29.10.2023 14:30 14,5 C 14,4 C 10,6 C 86 % 994,5 hPa 0,0 l/m 0 min 0 min 136 W/m 12,9 km/h (3 Bft) 98,25 %
29.10.2023 14:35 14,4 C 14,4 C 10,6 C 86 % 994,5 hPa 0,0 l/m 0 min 0 min 122 W/m 19,3 km/h (3 Bft) 100,00 %
29.10.2023 14:40 14,4 C 13,9 C 10,6 C 86 % 994,4 hPa 0,0 l/m 0 min 0 min 108 W/m 16,1 km/h (3 Bft) 100,00 %
29.10.2023 14:45 14,4 C 13,9 C 10,6 C 87 % 994,4 hPa 0,0 l/m 0 min 0 min 130 W/m 22,5 km/h (4 Bft) 100,00 %
29.10.2023 14:50 14,3 C 13,9 C 10,6 C 87 % 994,4 hPa 0,0 l/m 0 min 0 min 135 W/m 29,0 km/h (5 Bft) 100,00 %
29.10.2023 14:55 14,3 C 13,9 C 10,6 C 87 % 994,4 hPa 0,0 l/m 0 min 0 min 97 W/m 25,7 km/h (4 Bft) 100,00 %
29.10.2023 15:00 14,3 C 13,9 C 10,0 C 87 % 994,4 hPa 0,0 l/m 0 min 0 min 58 W/m 16,1 km/h (3 Bft) 100,00 %
29.10.2023 15:05 14,3 C 13,9 C 10,0 C 87 % 994,5 hPa 0,0 l/m 0 min 0 min 46 W/m 25,7 km/h (4 Bft) 98,25 %
29.10.2023 15:08 14,3 C 13,9 C 10,0 C 87 % 994,5 hPa 0,0 l/m 0 min 0 min 37 W/m 6,4 km/h (2 Bft) 97,03 %
29.10.2023 15:10 14,3 C 13,9 C 10,0 C 87 % 994,5 hPa 0,0 l/m 0 min 0 min 48 W/m 16,1 km/h (3 Bft) 97,06 %
29.10.2023 15:16 14,3 C 13,9 C 10,0 C 88 % 994,3 hPa 0,0 l/m 0 min 0 min 99 W/m 16,1 km/h (3 Bft) 93,75 %
29.10.2023 15:20 14,3 C 13,9 C 10,0 C 88 % 994,3 hPa 0,0 l/m 0 min 0 min 110 W/m 22,5 km/h (4 Bft) 92,68 %
29.10.2023 15:25 14,3 C 14,4 C 10,6 C 88 % 994,3 hPa 0,0 l/m 0 min 0 min 89 W/m 25,7 km/h (4 Bft) 98,25 %
29.10.2023 15:28 14,4 C 14,4 C 10,6 C 88 % 994,2 hPa 0,0 l/m 3 min 0 min 123 W/m 22,5 km/h (4 Bft) 94,37 %
29.10.2023 15:30 14,5 C 14,4 C 10,6 C 88 % 994,1 hPa 0,0 l/m 2 min 0 min 133 W/m 12,9 km/h (3 Bft) 95,65 %
29.10.2023 15:32 14,6 C 14,4 C 10,6 C 87 % 993,9 hPa 0,0 l/m 0 min 0 min 59 W/m 35,4 km/h (5 Bft) 93,62 %
29.10.2023 15:34 14,6 C 14,4 C 10,6 C 87 % 994,0 hPa 0,0 l/m 0 min 0 min 31 W/m 29,0 km/h (5 Bft) 93,62 %
29.10.2023 15:35 14,6 C 14,4 C 10,6 C 86 % 994,2 hPa 0,0 l/m 0 min 0 min 35 W/m 35,4 km/h (5 Bft) 96,49 %
29.10.2023 15:40 14,7 C 14,4 C 10,6 C 86 % 994,1 hPa 0,0 l/m 0 min 0 min 61 W/m 29,0 km/h (5 Bft) 97,37 %
29.10.2023 15:45 14,7 C 14,4 C 10,6 C 86 % 994,1 hPa 0,0 l/m 0 min 0 min 51 W/m 32,2 km/h (5 Bft) 100,00 %
29.10.2023 15:50 14,8 C 14,4 C 10,6 C 85 % 994,0 hPa 0,0 l/m 0 min 0 min 54 W/m 38,6 km/h (5 Bft) 100,00 %
29.10.2023 15:55 14,9 C 15,0 C 10,6 C 85 % 993,9 hPa 0,0 l/m 5 min 0 min 103 W/m 41,8 km/h (6 Bft) 100,00 %
29.10.2023 16:00 15,1 C 14,4 C 10,6 C 84 % 994,1 hPa 0,0 l/m 0 min 0 min 39 W/m 29,0 km/h (5 Bft) 100,00 %
29.10.2023 16:05 15,1 C 14,4 C 10,6 C 83 % 994,2 hPa 0,0 l/m 0 min 0 min 48 W/m 32,2 km/h (5 Bft) 100,00 %
29.10.2023 16:10 15,0 C 14,4 C 10,6 C 83 % 994,4 hPa 0,0 l/m 0 min 0 min 56 W/m 32,2 km/h (5 Bft) 100,00 %
29.10.2023 16:15 15,1 C 14,4 C 10,6 C 83 % 994,4 hPa 0,0 l/m 5 min 0 min 69 W/m 29,0 km/h (5 Bft) 100,00 %
29.10.2023 16:20 15,1 C 14,4 C 10,6 C 82 % 994,4 hPa 0,0 l/m 0 min 0 min 41 W/m 48,3 km/h (6 Bft) 100,00 %
29.10.2023 16:26 15,1 C 14,4 C 10,6 C 82 % 994,4 hPa 0,0 l/m 0 min 0 min 24 W/m 22,5 km/h (4 Bft) 97,22 %
29.10.2023 16:28 15,1 C 14,4 C 10,6 C 81 % 994,3 hPa 0,0 l/m 0 min 0 min 22 W/m 32,2 km/h (5 Bft) 100,00 %
29.10.2023 16:30 15,1 C 14,4 C 10,6 C 81 % 994,2 hPa 0,0 l/m 0 min 0 min 20 W/m 32,2 km/h (5 Bft) 100,00 %
29.10.2023 16:32 15,1 C 14,4 C 10,6 C 81 % 994,3 hPa 0,0 l/m 0 min 0 min 25 W/m 22,5 km/h (4 Bft) 97,87 %
29.10.2023 16:34 15,0 C 14,4 C 10,6 C 81 % 994,4 hPa 0,0 l/m 0 min 0 min 21 W/m 38,6 km/h (5 Bft) 96,15 %
29.10.2023 16:36 15,0 C 13,9 C 10,6 C 81 % 994,4 hPa 0,0 l/m 0 min 0 min 20 W/m 35,4 km/h (5 Bft) 100,00 %
29.10.2023 16:38 14,9 C 13,9 C 10,6 C 81 % 994,5 hPa 0,0 l/m 0 min 0 min 23 W/m 22,5 km/h (4 Bft) 100,00 %
29.10.2023 16:40 14,9 C 13,9 C 10,6 C 81 % 994,5 hPa 0,0 l/m 0 min 0 min 19 W/m 48,3 km/h (6 Bft) 100,00 %
29.10.2023 16:42 14,9 C 13,9 C 10,6 C 81 % 994,6 hPa 0,0 l/m 0 min 0 min 17 W/m 32,2 km/h (5 Bft) 97,92 %
29.10.2023 16:44 14,9 C 13,9 C 10,6 C 81 % 994,6 hPa 0,0 l/m 0 min 0 min 15 W/m 29,0 km/h (5 Bft) 97,87 %
29.10.2023 16:46 14,9 C 13,9 C 10,6 C 81 % 994,7 hPa 0,0 l/m 0 min 0 min 14 W/m 29,0 km/h (5 Bft) 100,00 %
29.10.2023 16:48 14,8 C 13,9 C 10,6 C 81 % 994,7 hPa 0,0 l/m 0 min 0 min 13 W/m 38,6 km/h (5 Bft) 100,00 %
29.10.2023 16:50 14,8 C 13,9 C 10,6 C 81 % 994,7 hPa 0,0 l/m 0 min 0 min 12 W/m 29,0 km/h (5 Bft) 95,74 %
29.10.2023 16:52 14,8 C 13,9 C 10,0 C 81 % 994,8 hPa 0,0 l/m 0 min 0 min 11 W/m 25,7 km/h (4 Bft) 95,65 %
29.10.2023 16:54 14,7 C 13,9 C 10,0 C 81 % 994,6 hPa 0,0 l/m 0 min 0 min 11 W/m 32,2 km/h (5 Bft) 97,67 %
29.10.2023 16:56 14,7 C 13,9 C 10,0 C 81 % 994,7 hPa 0,0 l/m 0 min 0 min 9 W/m 22,5 km/h (4 Bft) 96,00 %
29.10.2023 16:58 14,7 C 13,9 C 10,0 C 81 % 994,6 hPa 0,0 l/m 0 min 0 min 9 W/m 38,6 km/h (5 Bft) 97,87 %
29.10.2023 17:00 14,7 C 13,9 C 10,0 C 81 % 994,6 hPa 0,0 l/m 0 min 0 min 9 W/m 35,4 km/h (5 Bft) 97,83 %
29.10.2023 17:02 14,7 C 13,9 C 10,0 C 81 % 994,7 hPa 0,0 l/m 0 min 0 min 9 W/m 25,7 km/h (4 Bft) 91,49 %
29.10.2023 17:04 14,6 C 13,9 C 10,0 C 81 % 994,7 hPa 0,0 l/m 0 min 0 min 7 W/m 29,0 km/h (5 Bft) 97,62 %
29.10.2023 17:08 14,6 C 13,9 C 10,0 C 81 % 994,8 hPa 0,0 l/m 0 min 0 min 6 W/m 32,2 km/h (5 Bft) 97,87 %
29.10.2023 17:09 14,6 C 13,9 C 10,0 C 81 % 994,9 hPa 0,0 l/m 0 min 0 min 5 W/m 32,2 km/h (5 Bft) 95,65 %
29.10.2023 17:10 14,6 C 13,9 C 10,0 C 81 % 994,9 hPa 0,0 l/m 0 min 0 min 5 W/m 45,1 km/h (6 Bft) 100,00 %
29.10.2023 17:14 14,6 C 13,9 C 10,0 C 81 % 994,8 hPa 0,0 l/m 0 min 0 min 0 W/m 25,7 km/h (4 Bft) 95,74 %
29.10.2023 17:16 14,5 C 13,3 C 10,0 C 81 % 994,8 hPa 0,0 l/m 0 min 0 min 0 W/m 25,7 km/h (4 Bft) 95,83 %
29.10.2023 17:18 14,4 C 13,3 C 10,0 C 81 % 994,9 hPa 0,0 l/m 0 min 0 min 0 W/m 25,7 km/h (4 Bft) 93,62 %
29.10.2023 17:20 14,4 C 13,3 C 10,0 C 82 % 994,8 hPa 0,0 l/m 0 min 0 min 0 W/m 25,7 km/h (4 Bft) 95,74 %
29.10.2023 17:22 14,3 C 13,3 C 10,0 C 82 % 994,9 hPa 0,0 l/m 0 min 0 min 0 W/m 32,2 km/h (5 Bft) 95,74 %
29.10.2023 17:24 14,3 C 13,3 C 9,4 C 82 % 994,9 hPa 0,0 l/m 0 min 0 min 0 W/m 22,5 km/h (4 Bft) 93,62 %
29.10.2023 17:26 14,3 C 13,3 C 9,4 C 82 % 994,9 hPa 0,0 l/m 0 min 0 min 0 W/m 29,0 km/h (5 Bft) 95,74 %
29.10.2023 17:28 14,3 C 13,3 C 9,4 C 82 % 994,9 hPa 0,0 l/m 0 min 0 min 0 W/m 22,5 km/h (4 Bft) 93,48 %
29.10.2023 17:30 14,3 C 13,3 C 9,4 C 82 % 994,9 hPa 0,0 l/m 0 min 0 min 0 W/m 22,5 km/h (4 Bft) 95,74 %
29.10.2023 17:32 14,3 C 13,3 C 9,4 C 82 % 994,9 hPa 0,0 l/m 0 min 0 min 0 W/m 32,2 km/h (5 Bft) 95,74 %
29.10.2023 17:34 14,3 C 13,3 C 9,4 C 82 % 994,9 hPa 0,0 l/m 0 min 0 min 0 W/m 22,5 km/h (4 Bft) 95,74 %
29.10.2023 17:36 14,3 C 13,3 C 9,4 C 82 % 994,9 hPa 0,0 l/m 0 min 0 min 0 W/m 19,3 km/h (3 Bft) 97,87 %
29.10.2023 17:38 14,3 C 13,3 C 9,4 C 82 % 994,9 hPa 0,0 l/m 0 min 0 min 0 W/m 35,4 km/h (5 Bft) 97,87 %
29.10.2023 17:40 14,2 C 13,3 C 9,4 C 82 % 995,0 hPa 0,0 l/m 0 min 0 min 0 W/m 19,3 km/h (3 Bft) 97,87 %
29.10.2023 17:42 14,2 C 13,3 C 9,4 C 82 % 995,0 hPa 0,0 l/m 0 min 0 min 0 W/m 29,0 km/h (5 Bft) 95,74 %
29.10.2023 17:44 14,1 C 13,3 C 9,4 C 82 % 995,0 hPa 0,0 l/m 0 min 0 min 0 W/m 22,5 km/h (4 Bft) 95,65 %
29.10.2023 17:46 14,1 C 13,3 C 9,4 C 82 % 995,0 hPa 0,0 l/m 0 min 0 min 0 W/m 32,2 km/h (5 Bft) 97,67 %
29.10.2023 17:48 14,1 C 13,3 C 9,4 C 82 % 995,1 hPa 0,0 l/m 0 min 0 min 0 W/m 29,0 km/h (5 Bft) 96,08 %
29.10.2023 17:50 14,1 C 13,3 C 9,4 C 82 % 995,0 hPa 0,0 l/m 0 min 0 min 0 W/m 25,7 km/h (4 Bft) 97,87 %
29.10.2023 17:52 14,1 C 13,3 C 9,4 C 82 % 995,2 hPa 0,0 l/m 0 min 0 min 0 W/m 29,0 km/h (5 Bft) 97,87 %
29.10.2023 17:54 14,1 C 13,3 C 9,4 C 82 % 995,2 hPa 0,0 l/m 0 min 0 min 0 W/m 22,5 km/h (4 Bft) 95,74 %
29.10.2023 17:56 14,1 C 13,3 C 9,4 C 82 % 995,2 hPa 0,0 l/m 0 min 0 min 0 W/m 16,1 km/h (3 Bft) 97,87 %
29.10.2023 17:58 14,1 C 13,3 C 9,4 C 82 % 995,2 hPa 0,0 l/m 0 min 0 min 0 W/m 25,7 km/h (4 Bft) 97,83 %
29.10.2023 18:00 14,1 C 13,3 C 9,4 C 82 % 995,3 hPa 0,0 l/m 0 min 0 min 0 W/m 22,5 km/h (4 Bft) 95,74 %
29.10.2023 18:02 14,0 C 13,3 C 9,4 C 82 % 995,3 hPa 0,0 l/m 0 min 0 min 0 W/m 16,1 km/h (3 Bft) 97,87 %
29.10.2023 18:04 14,0 C 13,3 C 9,4 C 81 % 995,3 hPa 0,0 l/m 0 min 0 min 0 W/m 35,4 km/h (5 Bft) 98,11 %
29.10.2023 18:08 13,9 C 12,8 C 9,4 C 82 % 995,4 hPa 0,0 l/m 0 min 0 min 0 W/m 32,2 km/h (5 Bft) 97,80 %
29.10.2023 18:10 13,9 C 12,8 C 9,4 C 82 % 995,5 hPa 0,0 l/m 0 min 0 min 0 W/m 25,7 km/h (4 Bft) 97,83 %
29.10.2023 18:12 13,9 C 12,8 C 9,4 C 81 % 995,4 hPa 0,0 l/m 0 min 0 min 0 W/m 19,3 km/h (3 Bft) 97,87 %
29.10.2023 18:16 13,9 C 12,8 C 9,4 C 81 % 995,4 hPa 0,0 l/m 0 min 0 min 0 W/m 29,0 km/h (5 Bft) 96,94 %
29.10.2023 18:18 13,9 C 12,8 C 9,4 C 81 % 995,5 hPa 0,0 l/m 0 min 0 min 0 W/m 35,4 km/h (5 Bft) 95,74 %
29.10.2023 18:20 13,9 C 12,8 C 9,4 C 81 % 995,6 hPa 0,0 l/m 0 min 0 min 0 W/m 22,5 km/h (4 Bft) 97,83 %
29.10.2023 18:22 13,9 C 12,8 C 9,4 C 81 % 995,6 hPa 0,0 l/m 0 min 0 min 0 W/m 29,0 km/h (5 Bft) 97,30 %
29.10.2023 18:24 13,9 C 12,8 C 9,4 C 81 % 995,6 hPa 0,0 l/m 0 min 0 min 0 W/m 22,5 km/h (4 Bft) 100,00 %
29.10.2023 18:26 13,9 C 12,8 C 9,4 C 81 % 995,7 hPa 0,0 l/m 0 min 0 min 0 W/m 16,1 km/h (3 Bft) 100,00 %
29.10.2023 18:28 13,8 C 12,8 C 9,4 C 81 % 995,7 hPa 0,0 l/m 0 min 0 min 0 W/m 22,5 km/h (4 Bft) 100,00 %
29.10.2023 18:30 13,8 C 12,8 C 9,4 C 81 % 995,7 hPa 0,0 l/m 0 min 0 min 0 W/m 25,7 km/h (4 Bft) 91,49 %
29.10.2023 18:32 13,8 C 12,8 C 8,9 C 81 % 995,7 hPa 0,0 l/m 0 min 0 min 0 W/m 22,5 km/h (4 Bft) 100,00 %
29.10.2023 18:34 13,7 C 12,8 C 8,9 C 81 % 995,8 hPa 0,0 l/m 0 min 0 min 0 W/m 19,3 km/h (3 Bft) 97,87 %
29.10.2023 18:36 13,7 C 12,8 C 8,9 C 81 % 995,8 hPa 0,0 l/m 0 min 0 min 0 W/m 19,3 km/h (3 Bft) 100,00 %
29.10.2023 18:38 13,7 C 12,8 C 8,9 C 82 % 995,8 hPa 0,0 l/m 0 min 0 min 0 W/m 25,7 km/h (4 Bft) 100,00 %
29.10.2023 18:40 13,7 C 12,8 C 8,9 C 82 % 995,9 hPa 0,0 l/m 0 min 0 min 0 W/m 19,3 km/h (3 Bft) 100,00 %
29.10.2023 18:42 13,6 C 12,8 C 8,9 C 82 % 995,9 hPa 0,0 l/m 0 min 0 min 0 W/m 12,9 km/h (3 Bft) 97,83 %
29.10.2023 18:44 13,6 C 12,8 C 8,9 C 82 % 995,8 hPa 0,0 l/m 0 min 0 min 0 W/m 32,2 km/h (5 Bft) 100,00 %
29.10.2023 18:46 13,6 C 12,8 C 8,9 C 82 % 995,9 hPa 0,0 l/m 0 min 0 min 0 W/m 29,0 km/h (5 Bft) 100,00 %
29.10.2023 18:48 13,6 C 12,8 C 8,9 C 82 % 995,9 hPa 0,0 l/m 0 min 0 min 0 W/m 32,2 km/h (5 Bft) 100,00 %
29.10.2023 18:50 13,6 C 12,8 C 8,9 C 82 % 995,8 hPa 0,0 l/m 0 min 0 min 0 W/m 25,7 km/h (4 Bft) 97,87 %
29.10.2023 18:52 13,6 C 12,8 C 8,9 C 82 % 995,8 hPa 0,0 l/m 0 min 0 min 0 W/m 25,7 km/h (4 Bft) 100,00 %
29.10.2023 18:54 13,6 C 12,8 C 8,9 C 82 % 995,8 hPa 0,0 l/m 0 min 0 min 0 W/m 32,2 km/h (5 Bft) 96,36 %
29.10.2023 18:56 13,6 C 12,8 C 8,9 C 82 % 995,9 hPa 0,0 l/m 0 min 0 min 0 W/m 29,0 km/h (5 Bft) 100,00 %
29.10.2023 18:58 13,6 C 12,8 C 8,9 C 82 % 996,0 hPa 0,0 l/m 0 min 0 min 0 W/m 19,3 km/h (3 Bft) 97,87 %
29.10.2023 19:00 13,6 C 12,8 C 8,9 C 82 % 996,1 hPa 0,0 l/m 0 min 0 min 0 W/m 38,6 km/h (5 Bft) 100,00 %
29.10.2023 19:02 13,6 C 12,8 C 8,9 C 81 % 996,0 hPa 0,0 l/m 0 min 0 min 0 W/m 22,5 km/h (4 Bft) 100,00 %
29.10.2023 19:04 13,7 C 12,8 C 8,9 C 81 % 996,1 hPa 0,0 l/m 0 min 0 min 0 W/m 22,5 km/h (4 Bft) 97,78 %
29.10.2023 19:08 13,7 C 12,8 C 8,9 C 81 % 996,1 hPa 0,0 l/m 0 min 0 min 0 W/m 32,2 km/h (5 Bft) 96,97 %
29.10.2023 19:09 13,7 C 12,8 C 9,4 C 81 % 996,2 hPa 0,0 l/m 0 min 0 min 0 W/m 29,0 km/h (5 Bft) 100,00 %
29.10.2023 19:10 13,7 C 12,8 C 8,9 C 81 % 996,2 hPa 0,0 l/m 0 min 0 min 0 W/m 32,2 km/h (5 Bft) 99,12 %
29.10.2023 19:14 13,7 C 12,8 C 9,4 C 81 % 996,2 hPa 0,0 l/m 0 min 0 min 0 W/m 38,6 km/h (5 Bft) 95,74 %
29.10.2023 19:16 13,7 C 12,8 C 8,9 C 80 % 996,2 hPa 0,0 l/m 0 min 0 min 0 W/m 22,5 km/h (4 Bft) 96,43 %
29.10.2023 19:18 13,7 C 12,8 C 8,9 C 80 % 996,3 hPa 0,0 l/m 0 min 0 min 0 W/m 38,6 km/h (5 Bft) 97,83 %
29.10.2023 19:20 13,7 C 12,8 C 9,4 C 80 % 996,3 hPa 0,0 l/m 0 min 0 min 0 W/m 45,1 km/h (6 Bft) 95,74 %
29.10.2023 19:22 13,8 C 12,8 C 9,4 C 80 % 996,4 hPa 0,0 l/m 0 min 0 min 0 W/m 45,1 km/h (6 Bft) 97,87 %
29.10.2023 19:24 13,8 C 12,8 C 9,4 C 80 % 996,4 hPa 0,0 l/m 0 min 0 min 0 W/m 32,2 km/h (5 Bft) 97,87 %
29.10.2023 19:26 13,8 C 12,8 C 9,4 C 80 % 996,4 hPa 0,0 l/m 0 min 0 min 0 W/m 29,0 km/h (5 Bft) 97,87 %
29.10.2023 19:28 13,8 C 12,8 C 9,4 C 80 % 996,5 hPa 0,0 l/m 0 min 0 min 0 W/m 25,7 km/h (4 Bft) 97,87 %
29.10.2023 19:30 13,8 C 12,8 C 9,4 C 80 % 996,4 hPa 0,0 l/m 0 min 0 min 0 W/m 29,0 km/h (5 Bft) 95,74 %
29.10.2023 19:32 13,8 C 12,8 C 9,4 C 80 % 996,5 hPa 0,0 l/m 0 min 0 min 0 W/m 22,5 km/h (4 Bft) 93,62 %
29.10.2023 19:34 13,8 C 12,8 C 9,4 C 80 % 996,5 hPa 0,0 l/m 0 min 0 min 0 W/m 35,4 km/h (5 Bft) 95,65 %
29.10.2023 19:36 13,8 C 12,8 C 9,4 C 80 % 996,6 hPa 0,0 l/m 0 min 0 min 0 W/m 22,5 km/h (4 Bft) 95,74 %
29.10.2023 19:38 13,9 C 13,3 C 9,4 C 80 % 996,5 hPa 0,0 l/m 0 min 0 min 0 W/m 22,5 km/h (4 Bft) 97,87 %
29.10.2023 19:40 13,9 C 12,8 C 9,4 C 80 % 996,5 hPa 0,0 l/m 0 min 0 min 0 W/m 25,7 km/h (4 Bft) 97,87 %
29.10.2023 19:42 13,9 C 13,3 C 9,4 C 80 % 996,6 hPa 0,0 l/m 0 min 0 min 0 W/m 32,2 km/h (5 Bft) 97,87 %
29.10.2023 19:44 13,9 C 13,3 C 9,4 C 79 % 996,6 hPa 0,0 l/m 0 min 0 min 0 W/m 22,5 km/h (4 Bft) 56,52 %
29.10.2023 19:46 13,9 C 13,3 C 9,4 C 80 % 996,7 hPa 0,0 l/m 0 min 0 min 0 W/m 29,0 km/h (5 Bft) 97,87 %
29.10.2023 19:48 13,9 C 13,3 C 9,4 C 80 % 996,7 hPa 0,0 l/m 0 min 0 min 0 W/m 32,2 km/h (5 Bft) 97,87 %
29.10.2023 19:50 14,0 C 13,3 C 9,4 C 80 % 996,7 hPa 0,0 l/m 0 min 0 min 0 W/m 35,4 km/h (5 Bft) 97,83 %
29.10.2023 19:52 14,0 C 13,3 C 9,4 C 80 % 996,8 hPa 0,0 l/m 0 min 0 min 0 W/m 22,5 km/h (4 Bft) 97,87 %
29.10.2023 19:54 14,0 C 13,3 C 9,4 C 80 % 996,8 hPa 0,0 l/m 0 min 0 min 0 W/m 25,7 km/h (4 Bft) 97,87 %
29.10.2023 19:56 14,0 C 13,3 C 9,4 C 80 % 996,9 hPa 0,0 l/m 0 min 0 min 0 W/m 25,7 km/h (4 Bft) 95,74 %
29.10.2023 19:58 14,1 C 13,3 C 9,4 C 80 % 996,9 hPa 0,0 l/m 0 min 0 min 0 W/m 38,6 km/h (5 Bft) 97,87 %
29.10.2023 20:00 14,1 C 13,3 C 9,4 C 80 % 996,9 hPa 0,0 l/m 0 min 0 min 0 W/m 22,5 km/h (4 Bft) 97,87 %
29.10.2023 20:02 14,1 C 12,8 C 9,4 C 80 % 997,0 hPa 0,0 l/m 0 min 0 min 0 W/m 25,7 km/h (4 Bft) 93,62 %
29.10.2023 20:04 14,0 C 13,3 C 9,4 C 80 % 996,9 hPa 0,0 l/m 0 min 0 min 0 W/m 35,4 km/h (5 Bft) 97,83 %
29.10.2023 20:08 14,0 C 12,8 C 9,4 C 80 % 997,1 hPa 0,0 l/m 0 min 0 min 0 W/m 29,0 km/h (5 Bft) 96,94 %
29.10.2023 20:09 14,0 C 12,8 C 9,4 C 80 % 997,1 hPa 0,0 l/m 0 min 0 min 0 W/m 57,9 km/h (7 Bft) 100,00 %
29.10.2023 20:10 14,0 C 13,3 C 9,4 C 80 % 997,1 hPa 0,0 l/m 0 min 0 min 0 W/m 57,9 km/h (7 Bft) 98,25 %
29.10.2023 20:14 13,9 C 12,8 C 9,4 C 80 % 997,2 hPa 0,0 l/m 0 min 0 min 0 W/m 16,1 km/h (3 Bft) 100,00 %
29.10.2023 20:16 13,9 C 12,8 C 9,4 C 80 % 997,2 hPa 0,0 l/m 0 min 0 min 0 W/m 35,4 km/h (5 Bft) 100,00 %
29.10.2023 20:18 13,9 C 13,3 C 9,4 C 80 % 997,2 hPa 0,0 l/m 0 min 0 min 0 W/m 29,0 km/h (5 Bft) 97,83 %
29.10.2023 20:20 14,0 C 13,3 C 9,4 C 80 % 997,2 hPa 0,0 l/m 0 min 0 min 0 W/m 48,3 km/h (6 Bft) 97,87 %
29.10.2023 20:22 14,0 C 13,3 C 9,4 C 80 % 997,2 hPa 0,0 l/m 0 min 0 min 0 W/m 22,5 km/h (4 Bft) 97,87 %
29.10.2023 20:24 14,0 C 12,8 C 9,4 C 80 % 997,3 hPa 0,0 l/m 0 min 0 min 0 W/m 22,5 km/h (4 Bft) 95,74 %
29.10.2023 20:26 13,9 C 12,8 C 9,4 C 80 % 997,3 hPa 0,0 l/m 0 min 0 min 0 W/m 29,0 km/h (5 Bft) 100,00 %
29.10.2023 20:28 13,9 C 12,8 C 9,4 C 80 % 997,3 hPa 0,0 l/m 0 min 0 min 0 W/m 19,3 km/h (3 Bft) 100,00 %
29.10.2023 20:30 13,9 C 12,8 C 9,4 C 80 % 997,3 hPa 0,0 l/m 0 min 0 min 0 W/m 19,3 km/h (3 Bft) 97,87 %
29.10.2023 20:32 13,8 C 12,8 C 9,4 C 80 % 997,5 hPa 0,0 l/m 0 min 0 min 0 W/m 19,3 km/h (3 Bft) 100,00 %
29.10.2023 20:34 13,8 C 12,8 C 8,9 C 81 % 997,5 hPa 0,0 l/m 0 min 0 min 0 W/m 19,3 km/h (3 Bft) 97,87 %
29.10.2023 20:36 13,8 C 12,8 C 9,4 C 81 % 997,6 hPa 0,0 l/m 0 min 0 min 0 W/m 45,1 km/h (6 Bft) 97,87 %
29.10.2023 20:38 13,8 C 12,8 C 9,4 C 81 % 997,6 hPa 0,0 l/m 0 min 0 min 0 W/m 38,6 km/h (5 Bft) 100,00 %
29.10.2023 20:40 13,8 C 12,8 C 8,9 C 81 % 997,6 hPa 0,0 l/m 0 min 0 min 0 W/m 19,3 km/h (3 Bft) 97,87 %
29.10.2023 20:42 13,8 C 12,8 C 8,9 C 81 % 997,7 hPa 0,0 l/m 0 min 0 min 0 W/m 19,3 km/h (3 Bft) 93,62 %
29.10.2023 20:44 13,8 C 12,8 C 8,9 C 81 % 997,7 hPa 0,0 l/m 0 min 0 min 0 W/m 25,7 km/h (4 Bft) 97,87 %
29.10.2023 20:46 13,7 C 12,8 C 8,9 C 81 % 997,7 hPa 0,0 l/m 0 min 0 min 0 W/m 32,2 km/h (5 Bft) 95,65 %
29.10.2023 20:48 13,7 C 12,8 C 8,9 C 81 % 997,8 hPa 0,0 l/m 0 min 0 min 0 W/m 22,5 km/h (4 Bft) 95,74 %
29.10.2023 20:50 13,7 C 12,8 C 8,9 C 82 % 997,8 hPa 0,0 l/m 0 min 0 min 0 W/m 29,0 km/h (5 Bft) 97,87 %
29.10.2023 20:52 13,7 C 12,8 C 8,9 C 82 % 997,8 hPa 0,0 l/m 0 min 0 min 0 W/m 29,0 km/h (5 Bft) 97,87 %
29.10.2023 20:54 13,7 C 12,8 C 8,9 C 82 % 997,9 hPa 0,0 l/m 0 min 0 min 0 W/m 25,7 km/h (4 Bft) 96,43 %
29.10.2023 20:56 13,7 C 12,8 C 8,9 C 82 % 997,8 hPa 0,0 l/m 0 min 0 min 0 W/m 19,3 km/h (3 Bft) 97,87 %
29.10.2023 20:58 13,7 C 12,8 C 8,9 C 82 % 997,9 hPa 0,0 l/m 0 min 0 min 0 W/m 22,5 km/h (4 Bft) 93,62 %
29.10.2023 21:00 13,6 C 12,8 C 8,9 C 82 % 998,0 hPa 0,0 l/m 0 min 0 min 0 W/m 22,5 km/h (4 Bft) 95,74 %
29.10.2023 21:02 13,6 C 12,8 C 8,9 C 82 % 998,1 hPa 0,0 l/m 0 min 0 min 0 W/m 19,3 km/h (3 Bft) 95,74 %
29.10.2023 21:04 13,6 C 12,8 C 8,9 C 82 % 998,1 hPa 0,0 l/m 0 min 0 min 0 W/m 22,5 km/h (4 Bft) 94,87 %
29.10.2023 21:06 13,6 C 12,8 C 8,9 C 83 % 998,1 hPa 0,0 l/m 0 min 0 min 0 W/m 22,5 km/h (4 Bft) 91,49 %
29.10.2023 21:08 13,6 C 12,8 C 8,9 C 83 % 998,1 hPa 0,0 l/m 0 min 0 min 0 W/m 16,1 km/h (3 Bft) 93,62 %
29.10.2023 21:10 13,5 C 12,8 C 8,9 C 83 % 998,1 hPa 0,0 l/m 0 min 0 min 0 W/m 16,1 km/h (3 Bft) 93,48 %
29.10.2023 21:12 13,5 C 12,8 C 8,9 C 83 % 998,1 hPa 0,0 l/m 0 min 0 min 0 W/m 19,3 km/h (3 Bft) 95,74 %
29.10.2023 21:14 13,5 C 12,8 C 8,9 C 83 % 998,2 hPa 0,0 l/m 0 min 0 min 0 W/m 35,4 km/h (5 Bft) 93,62 %
29.10.2023 21:16 13,4 C 12,8 C 8,9 C 83 % 998,2 hPa 0,0 l/m 0 min 0 min 0 W/m 25,7 km/h (4 Bft) 93,62 %
29.10.2023 21:18 13,4 C 12,8 C 8,9 C 83 % 998,2 hPa 0,0 l/m 0 min 0 min 0 W/m 29,0 km/h (5 Bft) 93,62 %
29.10.2023 21:20 13,4 C 12,2 C 8,9 C 83 % 998,3 hPa 0,0 l/m 0 min 0 min 0 W/m 16,1 km/h (3 Bft) 93,62 %
29.10.2023 21:22 13,4 C 12,2 C 8,9 C 83 % 998,3 hPa 0,0 l/m 0 min 0 min 0 W/m 19,3 km/h (3 Bft) 95,74 %
29.10.2023 21:24 13,4 C 12,2 C 8,9 C 84 % 998,4 hPa 0,0 l/m 0 min 0 min 0 W/m 25,7 km/h (4 Bft) 93,62 %
29.10.2023 21:26 13,4 C 12,2 C 8,9 C 84 % 998,4 hPa 0,0 l/m 0 min 0 min 0 W/m 19,3 km/h (3 Bft) 97,87 %
29.10.2023 21:28 13,3 C 12,2 C 8,9 C 84 % 998,5 hPa 0,0 l/m 0 min 0 min 0 W/m 22,5 km/h (4 Bft) 95,65 %
29.10.2023 21:30 13,3 C 12,2 C 8,9 C 84 % 998,4 hPa 0,0 l/m 0 min 0 min 0 W/m 25,7 km/h (4 Bft) 95,74 %
29.10.2023 21:32 13,3 C 12,2 C 8,9 C 84 % 998,4 hPa 0,0 l/m 0 min 0 min 0 W/m 25,7 km/h (4 Bft) 97,87 %
29.10.2023 21:34 13,3 C 12,2 C 8,9 C 84 % 998,4 hPa 0,0 l/m 0 min 0 min 0 W/m 29,0 km/h (5 Bft) 100,00 %
29.10.2023 21:36 13,2 C 12,2 C 8,9 C 84 % 998,5 hPa 0,0 l/m 0 min 0 min 0 W/m 16,1 km/h (3 Bft) 97,87 %
29.10.2023 21:38 13,2 C 12,2 C 8,9 C 85 % 998,6 hPa 0,0 l/m 0 min 0 min 0 W/m 35,4 km/h (5 Bft) 100,00 %
29.10.2023 21:40 13,2 C 12,2 C 8,9 C 85 % 998,6 hPa 0,0 l/m 0 min 0 min 0 W/m 29,0 km/h (5 Bft) 100,00 %
29.10.2023 21:42 13,2 C 12,2 C 8,9 C 85 % 998,6 hPa 0,0 l/m 0 min 0 min 0 W/m 29,0 km/h (5 Bft) 97,83 %
29.10.2023 21:44 13,2 C 12,2 C 8,9 C 85 % 998,7 hPa 0,0 l/m 0 min 0 min 0 W/m 19,3 km/h (3 Bft) 100,00 %
29.10.2023 21:46 13,1 C 12,2 C 8,3 C 85 % 998,7 hPa 0,0 l/m 0 min 0 min 0 W/m 22,5 km/h (4 Bft) 100,00 %
29.10.2023 21:48 13,1 C 12,2 C 8,3 C 85 % 998,6 hPa 0,0 l/m 0 min 0 min 0 W/m 16,1 km/h (3 Bft) 100,00 %
29.10.2023 21:50 13,1 C 12,2 C 8,3 C 85 % 998,8 hPa 0,0 l/m 0 min 0 min 0 W/m 25,7 km/h (4 Bft) 100,00 %
29.10.2023 21:52 13,1 C 12,2 C 8,3 C 85 % 998,8 hPa 0,0 l/m 0 min 0 min 0 W/m 22,5 km/h (4 Bft) 100,00 %
29.10.2023 21:54 13,1 C 12,2 C 8,3 C 85 % 998,7 hPa 0,0 l/m 0 min 0 min 0 W/m 16,1 km/h (3 Bft) 100,00 %
29.10.2023 21:56 13,1 C 12,2 C 8,3 C 85 % 998,9 hPa 0,0 l/m 0 min 0 min 0 W/m 16,1 km/h (3 Bft) 97,83 %
29.10.2023 21:58 13,0 C 12,2 C 8,3 C 85 % 998,8 hPa 0,0 l/m 0 min 0 min 0 W/m 19,3 km/h (3 Bft) 100,00 %
29.10.2023 22:00 13,0 C 12,2 C 8,3 C 86 % 998,9 hPa 0,0 l/m 0 min 0 min 0 W/m 19,3 km/h (3 Bft) 97,87 %
29.10.2023 22:02 12,9 C 12,2 C 8,3 C 86 % 998,8 hPa 0,0 l/m 0 min 0 min 0 W/m 19,3 km/h (3 Bft) 100,00 %
29.10.2023 22:04 12,9 C 12,2 C 8,3 C 86 % 998,8 hPa 0,0 l/m 0 min 0 min 0 W/m 22,5 km/h (4 Bft) 100,00 %
29.10.2023 22:08 12,9 C 12,2 C 8,3 C 86 % 999,1 hPa 0,0 l/m 0 min 0 min 0 W/m 25,7 km/h (4 Bft) 97,87 %
29.10.2023 22:10 12,9 C 12,2 C 8,3 C 86 % 998,9 hPa 0,0 l/m 0 min 0 min 0 W/m 19,3 km/h (3 Bft) 97,87 %
29.10.2023 22:12 12,9 C 12,2 C 8,3 C 86 % 999,0 hPa 0,0 l/m 0 min 0 min 0 W/m 19,3 km/h (3 Bft) 97,37 %
29.10.2023 22:14 12,9 C 12,2 C 8,3 C 86 % 998,9 hPa 0,0 l/m 0 min 0 min 0 W/m 22,5 km/h (4 Bft) 97,87 %
29.10.2023 22:16 12,9 C 12,2 C 8,3 C 86 % 999,1 hPa 0,0 l/m 0 min 0 min 0 W/m 16,1 km/h (3 Bft) 97,87 %
29.10.2023 22:18 12,9 C 12,2 C 8,3 C 86 % 999,0 hPa 0,0 l/m 0 min 0 min 0 W/m 32,2 km/h (5 Bft) 95,74 %
29.10.2023 22:20 12,8 C 12,2 C 8,3 C 86 % 999,0 hPa 0,0 l/m 0 min 0 min 0 W/m 19,3 km/h (3 Bft) 97,87 %
29.10.2023 22:22 12,8 C 12,2 C 8,3 C 86 % 999,1 hPa 0,0 l/m 0 min 0 min 0 W/m 22,5 km/h (4 Bft) 95,74 %
29.10.2023 22:24 12,8 C 12,2 C 8,3 C 86 % 999,1 hPa 0,0 l/m 0 min 0 min 0 W/m 16,1 km/h (3 Bft) 89,36 %
29.10.2023 22:26 12,8 C 12,2 C 8,3 C 86 % 999,1 hPa 0,0 l/m 0 min 0 min 0 W/m 19,3 km/h (3 Bft) 59,09 %
29.10.2023 22:28 12,8 C 11,7 C 8,3 C 86 % 999,2 hPa 0,0 l/m 0 min 0 min 0 W/m 12,9 km/h (3 Bft) 97,87 %
29.10.2023 22:30 12,8 C 11,7 C 8,3 C 86 % 999,2 hPa 0,0 l/m 0 min 0 min 0 W/m 12,9 km/h (3 Bft) 97,87 %
29.10.2023 22:32 12,8 C 11,7 C 8,3 C 86 % 999,2 hPa 0,0 l/m 0 min 0 min 0 W/m 22,5 km/h (4 Bft) 93,62 %
29.10.2023 22:34 12,8 C 11,7 C 8,3 C 86 % 999,2 hPa 0,0 l/m 0 min 0 min 0 W/m 16,1 km/h (3 Bft) 97,87 %
29.10.2023 22:36 12,8 C 11,7 C 8,3 C 86 % 999,3 hPa 0,0 l/m 0 min 0 min 0 W/m 12,9 km/h (3 Bft) 93,62 %
29.10.2023 22:38 12,7 C 11,7 C 8,3 C 86 % 999,3 hPa 0,0 l/m 0 min 0 min 0 W/m 19,3 km/h (3 Bft) 97,83 %
29.10.2023 22:40 12,7 C 11,7 C 8,3 C 86 % 999,2 hPa 0,0 l/m 0 min 0 min 0 W/m 12,9 km/h (3 Bft) 97,87 %
29.10.2023 22:42 12,7 C 11,7 C 8,3 C 86 % 999,3 hPa 0,0 l/m 0 min 0 min 0 W/m 19,3 km/h (3 Bft) 95,74 %
29.10.2023 22:44 12,7 C 11,7 C 8,3 C 86 % 999,4 hPa 0,0 l/m 0 min 0 min 0 W/m 19,3 km/h (3 Bft) 97,87 %
29.10.2023 22:46 12,7 C 11,7 C 8,3 C 86 % 999,3 hPa 0,0 l/m 0 min 0 min 0 W/m 12,9 km/h (3 Bft) 97,87 %
29.10.2023 22:48 12,7 C 11,7 C 8,3 C 86 % 999,3 hPa 0,0 l/m 0 min 0 min 0 W/m 16,1 km/h (3 Bft) 97,87 %
29.10.2023 22:50 12,7 C 11,7 C 8,3 C 86 % 999,3 hPa 0,0 l/m 0 min 0 min 0 W/m 22,5 km/h (4 Bft) 97,87 %
29.10.2023 22:52 12,7 C 11,7 C 8,3 C 86 % 999,3 hPa 0,0 l/m 0 min 0 min 0 W/m 25,7 km/h (4 Bft) 97,83 %
29.10.2023 22:54 12,7 C 11,7 C 8,3 C 86 % 999,2 hPa 0,0 l/m 0 min 0 min 0 W/m 12,9 km/h (3 Bft) 95,92 %
29.10.2023 22:56 12,7 C 11,7 C 8,3 C 86 % 999,2 hPa 0,0 l/m 0 min 0 min 0 W/m 12,9 km/h (3 Bft) 97,83 %
29.10.2023 22:58 12,6 C 11,7 C 8,3 C 86 % 999,3 hPa 0,0 l/m 0 min 0 min 0 W/m 16,1 km/h (3 Bft) 97,87 %
29.10.2023 23:00 12,6 C 11,7 C 8,3 C 87 % 999,3 hPa 0,0 l/m 0 min 0 min 0 W/m 22,5 km/h (4 Bft) 97,87 %
29.10.2023 23:02 12,6 C 11,7 C 8,3 C 87 % 999,2 hPa 0,0 l/m 0 min 0 min 0 W/m 22,5 km/h (4 Bft) 97,87 %
29.10.2023 23:04 12,6 C 11,7 C 8,3 C 87 % 999,4 hPa 0,0 l/m 0 min 0 min 0 W/m 25,7 km/h (4 Bft) 97,73 %
29.10.2023 23:08 12,6 C 11,7 C 8,3 C 87 % 999,5 hPa 0,0 l/m 0 min 0 min 0 W/m 29,0 km/h (5 Bft) 97,06 %
29.10.2023 23:09 12,6 C 11,7 C 8,3 C 87 % 999,5 hPa 0,0 l/m 0 min 0 min 0 W/m 22,5 km/h (4 Bft) 95,83 %
29.10.2023 23:10 12,6 C 11,7 C 8,3 C 87 % 999,5 hPa 0,0 l/m 0 min 0 min 0 W/m 29,0 km/h (5 Bft) 98,25 %
29.10.2023 23:14 12,6 C 11,7 C 8,3 C 86 % 999,6 hPa 0,0 l/m 0 min 0 min 0 W/m 19,3 km/h (3 Bft) 94,92 %
29.10.2023 23:16 12,7 C 12,2 C 8,3 C 86 % 999,6 hPa 0,0 l/m 0 min 0 min 0 W/m 22,5 km/h (4 Bft) 97,14 %
29.10.2023 23:18 12,7 C 11,7 C 8,3 C 86 % 999,7 hPa 0,0 l/m 0 min 0 min 0 W/m 19,3 km/h (3 Bft) 95,74 %
29.10.2023 23:20 12,7 C 11,7 C 8,3 C 86 % 999,6 hPa 0,0 l/m 0 min 0 min 0 W/m 19,3 km/h (3 Bft) 97,87 %
29.10.2023 23:22 12,7 C 11,7 C 8,3 C 86 % 999,7 hPa 0,0 l/m 0 min 0 min 0 W/m 19,3 km/h (3 Bft) 97,87 %
29.10.2023 23:24 12,7 C 11,7 C 8,3 C 86 % 999,6 hPa 0,0 l/m 0 min 0 min 0 W/m 12,9 km/h (3 Bft) 100,00 %
29.10.2023 23:26 12,7 C 11,7 C 8,3 C 86 % 999,7 hPa 0,0 l/m 0 min 0 min 0 W/m 16,1 km/h (3 Bft) 100,00 %
29.10.2023 23:28 12,7 C 11,7 C 8,3 C 86 % 999,7 hPa 0,0 l/m 0 min 0 min 0 W/m 12,9 km/h (3 Bft) 100,00 %
29.10.2023 23:30 12,7 C 11,7 C 8,3 C 86 % 999,8 hPa 0,0 l/m 0 min 0 min 0 W/m 32,2 km/h (5 Bft) 100,00 %
29.10.2023 23:32 12,7 C 12,2 C 8,3 C 85 % 999,7 hPa 0,0 l/m 0 min 0 min 0 W/m 29,0 km/h (5 Bft) 97,87 %
29.10.2023 23:34 12,7 C 12,2 C 8,3 C 85 % 999,7 hPa 0,0 l/m 0 min 0 min 0 W/m 16,1 km/h (3 Bft) 97,87 %
29.10.2023 23:36 12,7 C 11,7 C 8,3 C 85 % 999,7 hPa 0,0 l/m 0 min 0 min 0 W/m 16,1 km/h (3 Bft) 97,87 %
29.10.2023 23:38 12,7 C 11,7 C 8,3 C 85 % 999,7 hPa 0,0 l/m 0 min 0 min 0 W/m 12,9 km/h (3 Bft) 97,87 %
29.10.2023 23:40 12,7 C 12,2 C 8,3 C 85 % 999,7 hPa 0,0 l/m 0 min 0 min 0 W/m 25,7 km/h (4 Bft) 97,83 %
29.10.2023 23:42 12,7 C 12,2 C 8,3 C 85 % 999,8 hPa 0,0 l/m 0 min 0 min 0 W/m 22,5 km/h (4 Bft) 97,87 %
29.10.2023 23:44 12,7 C 11,7 C 8,3 C 85 % 999,9 hPa 0,0 l/m 0 min 0 min 0 W/m 19,3 km/h (3 Bft) 95,74 %
29.10.2023 23:46 12,7 C 11,7 C 8,3 C 85 % 999,8 hPa 0,0 l/m 0 min 0 min 0 W/m 25,7 km/h (4 Bft) 95,74 %
29.10.2023 23:48 12,7 C 12,2 C 8,3 C 85 % 999,9 hPa 0,0 l/m 0 min 0 min 0 W/m 22,5 km/h (4 Bft) 97,87 %
29.10.2023 23:50 12,7 C 12,2 C 8,3 C 85 % 999,9 hPa 0,0 l/m 0 min 0 min 0 W/m 12,9 km/h (3 Bft) 95,74 %
29.10.2023 23:52 12,7 C 12,2 C 8,3 C 85 % 1000,0 hPa 0,0 l/m 0 min 0 min 0 W/m 16,1 km/h (3 Bft) 97,87 %
29.10.2023 23:54 12,7 C 12,2 C 8,3 C 85 % 1000,0 hPa 0,0 l/m 0 min 0 min 0 W/m 25,7 km/h (4 Bft) 97,87 %
29.10.2023 23:56 12,7 C 12,2 C 8,3 C 85 % 1000,1 hPa 0,0 l/m 0 min 0 min 0 W/m 25,7 km/h (4 Bft) 98,08 %
29.10.2023 23:58 12,8 C 12,2 C 8,3 C 84 % 1000,0 hPa 0,0 l/m 0 min 0 min 0 W/m 22,5 km/h (4 Bft) 97,83 %
_ Min-Zeit 00:00 00:00 00:00 12:40 04:20 - - - - 02:10 02:50
Minimum _ 11,5 C 10,6 C 7,8 C 74 % 992,3 hPa - - - - 3,2 km/h (1 Bft) 24,24 %
_ Max-Zeit 12:32 12:16 12:16 00:00 23:56 02:42 13:10 00:42 13:04 08:00 00:00
Maximum _ 16,0 C 16,1 C 11,7 C 98 % 1000,1 hPa 0,2 l/m 5 min 2 min 290 W/m 57,9 km/h
S (7 Bft)
100,00 %
Durchschnitt _ 13,7 C 13,1 C 9,3 C 86 % 995,2 hPa #0,4 l/m #54 min. #1:02 h 87 W/m 21,7 km/h (4 Bft) 97,26 %
© 2023 W. Hausmann